M I D A S
Marine Information and Data Acquisition System
Tripno 2176 of the Zeeleeuw from 2011-07-07 06:17:24 to 2011-07-07 14:18:31
Back to CruiseResearch ActivitiesStationsMapUnderway DataData graphs

EquipmentUnitsComment
TimeDGPSUTC
LatitudeDGPSDM.mWGS84
LongitudeDGPSDM.mWGS84
TemperatureSBE03/SBE38deg celciusITS90
ConductivitySBE21S/mITS90
SalinitySBE21 Practical Salinity Units
ChlorophylAChelsea fluorimeterg/lCalibrated in Aceton
Missing or incorrect values are displayed as -999
Sea surface data collected by the RV Zeeleeuw from 2011-07-07 06:18:47 to 2011-07-07 14:28:43
                                                                                    Next 1000 lines
Time Latitude Longitude Temperature Conductivity Salinity ChlorophylA
2011-07-07 06:18:57 51°13.636 2°56.015 22.0035 0.015568 0.084359 -3.020363
2011-07-07 06:19:01 51°13.636 2°56.012 22.0482 0.015568 0.08436 -3.020363
2011-07-07 06:19:06 51°13.637 2°56.009 22.0624 0.015568 0.08436 -3.020363
2011-07-07 06:19:11 51°13.638 2°56.004 22.0755 0.015568 0.08436 -3.020363
2011-07-07 06:19:17 51°13.64 2°55.997 22.0764 0.015568 0.084362 -3.020363
2011-07-07 06:19:22 51°13.642 2°55.991 22.078 0.015568 0.084363 -3.020363
2011-07-07 06:19:28 51°13.644 2°55.982 22.088 0.015568 0.084363 -3.020363
2011-07-07 06:19:33 51°13.646 2°55.975 22.0865 0.015568 0.084363 -3.020363
2011-07-07 06:19:38 51°13.648 2°55.967 22.078 0.015568 0.084363 -3.020363
2011-07-07 06:19:44 51°13.65 2°55.957 22.0864 0.015568 0.084364 -3.020363
2011-07-07 06:19:48 51°13.652 2°55.95 22.0919 0.015568 0.084364 -3.020363
2011-07-07 06:19:53 51°13.654 2°55.941 22.093 0.015568 0.084365 -3.020363
2011-07-07 06:19:58 51°13.656 2°55.932 22.0995 0.015568 0.084365 -3.020363
2011-07-07 06:20:03 51°13.659 2°55.922 22.0929 0.015568 0.084365 -3.020363
2011-07-07 06:20:08 51°13.661 2°55.912 22.1017 0.015568 0.084365 -3.020363
2011-07-07 06:20:13 51°13.664 2°55.902 22.1021 0.015568 0.084367 -3.020363
2011-07-07 06:20:18 51°13.666 2°55.892 22.1024 0.015568 0.084368 -3.020363
2011-07-07 06:20:23 51°13.669 2°55.882 22.1021 0.015568 0.084369 -3.020363
2011-07-07 06:20:28 51°13.671 2°55.872 22.1095 0.015568 0.084369 -3.020363
2011-07-07 06:20:33 51°13.673 2°55.862 22.1024 0.015568 0.084369 -3.020363
2011-07-07 06:20:38 51°13.675 2°55.853 22.1007 0.015568 0.084369 -3.020363
2011-07-07 06:20:43 51°13.677 2°55.844 22.0903 0.015568 0.084369 -3.020363
2011-07-07 06:20:49 51°13.68 2°55.834 22.0804 0.015568 0.08437 -3.020363
2011-07-07 06:20:53 51°13.681 2°55.827 22.0795 0.015568 0.08437 -3.020363
2011-07-07 06:20:58 51°13.683 2°55.82 22.0745 0.015568 0.084371 -3.020363
2011-07-07 06:21:03 51°13.684 2°55.812 22.0869 0.015568 0.084373 -3.020363
2011-07-07 06:21:08 51°13.685 2°55.804 22.0807 0.015568 0.084373 -3.020363
2011-07-07 06:21:13 51°13.686 2°55.797 22.0832 0.015568 0.084373 -3.020363
2011-07-07 06:21:18 51°13.687 2°55.79 22.0826 0.015568 0.084374 -3.020363
2011-07-07 06:21:22 51°13.687 2°55.785 22.0789 0.015568 0.084374 -3.020363
2011-07-07 06:21:27 51°13.688 2°55.778 22.07 0.015568 0.084374 -3.020363
2011-07-07 06:21:32 51°13.688 2°55.772 22.0744 0.015568 0.084375 -3.020363
2011-07-07 06:21:37 51°13.688 2°55.766 22.0756 0.015568 0.084375 -3.020363
2011-07-07 06:21:42 51°13.688 2°55.761 22.0824 0.015568 0.084376 -3.020363
2011-07-07 06:21:46 51°13.688 2°55.756 22.092 0.015568 0.084376 -3.020363
2011-07-07 06:21:51 51°13.688 2°55.752 22.0895 0.015568 0.084378 -3.020363
2011-07-07 06:21:56 51°13.688 2°55.747 22.1039 0.015568 0.084378 -3.020363
2011-07-07 06:22:01 51°13.688 2°55.742 22.0813 0.015568 0.084379 -3.020363
2011-07-07 06:22:06 51°13.688 2°55.739 22.0957 0.015568 0.084379 -3.020363
2011-07-07 06:22:10 51°13.688 2°55.736 22.0795 0.015568 0.084379 -3.020363
2011-07-07 06:22:15 51°13.687 2°55.734 22.0925 0.015568 0.08438 -3.020363
2011-07-07 06:22:21 51°13.687 2°55.731 22.0948 0.015568 0.08438 -3.020363
2011-07-07 06:22:26 51°13.687 2°55.729 22.0937 0.015568 0.084381 -3.020363
2011-07-07 06:22:30 51°13.687 2°55.727 22.0943 0.015568 0.084381 -3.020363
2011-07-07 06:22:35 51°13.688 2°55.726 22.0957 0.015568 0.084381 -3.020363
2011-07-07 06:22:40 51°13.688 2°55.726 22.0965 0.015568 0.084381 -3.020363
2011-07-07 06:22:45 51°13.688 2°55.725 22.1064 0.015568 0.084383 -3.020363
2011-07-07 06:22:50 51°13.689 2°55.725 22.1099 0.015568 0.084384 -3.020363
2011-07-07 06:22:54 51°13.689 2°55.724 22.1079 0.015568 0.084384 -3.020363
2011-07-07 06:22:58 51°13.69 2°55.725 22.1256 0.015568 0.084385 -3.020363
2011-07-07 06:23:04 51°13.691 2°55.725 22.1223 0.015568 0.084385 -3.020363
2011-07-07 06:23:10 51°13.694 2°55.726 22.122 0.015568 0.084385 -3.020363
2011-07-07 06:23:14 51°13.696 2°55.727 22.1184 0.015568 0.084386 -3.020363
2011-07-07 06:23:18 51°13.698 2°55.727 22.117 0.015568 0.084387 -3.020363
2011-07-07 06:23:24 51°13.701 2°55.727 22.1049 0.015568 0.084387 -3.020363
2011-07-07 06:23:29 51°13.704 2°55.727 22.1127 0.015568 0.084389 -3.020363
2011-07-07 06:23:34 51°13.706 2°55.727 22.1052 0.015568 0.084389 -3.020363
2011-07-07 06:23:39 51°13.709 2°55.727 22.1065 0.015568 0.084389 -3.020363
2011-07-07 06:23:44 51°13.711 2°55.726 22.106 0.015568 0.08439 -3.020363
2011-07-07 06:23:50 51°13.714 2°55.725 22.1076 0.015568 0.08439 -3.020363
2011-07-07 06:23:54 51°13.717 2°55.724 22.1072 0.015568 0.084391 -3.020363
2011-07-07 06:24:00 51°13.72 2°55.723 22.1064 0.015568 0.084391 -3.020363
2011-07-07 06:24:05 51°13.723 2°55.721 22.1019 0.015568 0.084391 -3.020363
2011-07-07 06:24:09 51°13.725 2°55.719 22.0995 0.015568 0.084392 -3.020363
2011-07-07 06:24:14 51°13.728 2°55.717 22.0944 0.015568 0.084392 -3.020363
2011-07-07 06:24:19 51°13.731 2°55.715 22.0907 0.015568 0.084392 -3.020363
2011-07-07 06:24:24 51°13.734 2°55.713 22.084 0.015568 0.084394 -3.020363
2011-07-07 06:24:29 51°13.737 2°55.711 22.0786 0.015568 0.084394 -3.020363
2011-07-07 06:24:34 51°13.74 2°55.708 22.0771 0.015568 0.084394 -3.020363
2011-07-07 06:24:38 51°13.743 2°55.705 22.0735 0.015568 0.084394 -3.020363
2011-07-07 06:24:44 51°13.746 2°55.701 22.0729 0.015568 0.084395 -3.020363
2011-07-07 06:24:49 51°13.749 2°55.698 22.0675 0.015568 0.084396 -3.020363
2011-07-07 06:24:55 51°13.753 2°55.695 22.0708 0.015568 0.084396 -3.020363
2011-07-07 06:25:00 51°13.755 2°55.688 22.0695 0.015568 0.084396 -3.020363
2011-07-07 06:25:04 51°13.757 2°55.683 22.0738 0.015568 0.084396 -3.020363
2011-07-07 06:25:09 51°13.759 2°55.677 22.0738 0.015568 0.084397 -3.020363
2011-07-07 06:25:14 51°13.762 2°55.674 22.0778 0.015568 0.084397 -3.020363
2011-07-07 06:25:19 51°13.767 2°55.673 22.0801 0.015568 0.084397 -3.020363
2011-07-07 06:25:25 51°13.772 2°55.67 22.0798 0.015568 0.084399 -3.020363
2011-07-07 06:25:29 51°13.776 2°55.669 22.0803 0.015568 0.084399 -3.020363
2011-07-07 06:25:34 51°13.781 2°55.666 22.0798 0.015568 0.084399 -3.020363
2011-07-07 06:25:38 51°13.785 2°55.664 22.0805 0.015568 0.084399 -3.020363
2011-07-07 06:25:44 51°13.791 2°55.662 22.0738 0.015568 0.0844 -3.020363
2011-07-07 06:25:49 51°13.795 2°55.659 22.0737 0.015568 0.0844 -3.020363
2011-07-07 06:25:54 51°13.8 2°55.656 22.0721 0.015568 0.084401 -3.020363
2011-07-07 06:26:00 51°13.805 2°55.651 22.0708 0.015568 0.084401 -3.020363
2011-07-07 06:26:05 51°13.809 2°55.648 22.0596 0.015568 0.084401 -3.020363
2011-07-07 06:26:10 51°13.814 2°55.645 22.0549 0.015568 0.084401 -3.020363
2011-07-07 06:26:15 51°13.818 2°55.642 22.0533 0.015568 0.084402 -3.020363
2011-07-07 06:26:19 51°13.822 2°55.641 22.054 0.015568 0.084402 -3.020363
2011-07-07 06:26:25 51°13.828 2°55.638 22.0533 0.015568 0.084402 -3.020363
2011-07-07 06:26:30 51°13.833 2°55.637 22.0551 0.015568 0.084404 -3.020363
2011-07-07 06:26:35 51°13.837 2°55.635 22.0586 0.015568 0.084404 -3.020363
2011-07-07 06:26:39 51°13.841 2°55.634 22.062 0.015568 0.084404 -3.020363
2011-07-07 06:26:44 51°13.845 2°55.633 22.0678 0.015568 0.084404 -3.020363
2011-07-07 06:26:49 51°13.849 2°55.632 22.0693 0.015568 0.084405 -3.020363
2011-07-07 06:26:54 51°13.853 2°55.631 22.0719 0.015568 0.084406 -3.020363
2011-07-07 06:26:59 51°13.857 2°55.63 22.0749 0.015568 0.084406 -3.020363
2011-07-07 06:27:04 51°13.861 2°55.629 22.0766 0.015568 0.084406 -3.020363
2011-07-07 06:27:09 51°13.864 2°55.628 22.0774 0.015568 0.084406 -3.020363
2011-07-07 06:27:15 51°13.868 2°55.628 22.0777 0.015568 0.084407 -3.020363
2011-07-07 06:27:19 51°13.871 2°55.627 22.0785 0.015568 0.084407 -3.020363
2011-07-07 06:27:24 51°13.875 2°55.627 22.0773 0.015568 0.084407 -3.020363
2011-07-07 06:27:30 51°13.879 2°55.628 22.08 0.015568 0.084409 -3.020363
2011-07-07 06:27:35 51°13.882 2°55.63 22.083 0.015568 0.084409 -3.020363
2011-07-07 06:27:39 51°13.885 2°55.631 22.0821 0.015568 0.084409 -3.020363
2011-07-07 06:27:44 51°13.889 2°55.632 22.0849 0.015568 0.08441 -3.020363
2011-07-07 06:27:49 51°13.891 2°55.632 22.0865 0.015568 0.08441 -3.020363
2011-07-07 06:27:55 51°13.895 2°55.632 22.0888 0.015568 0.08441 -3.020363
2011-07-07 06:27:59 51°13.897 2°55.633 22.0901 0.015568 0.084411 -3.020363
2011-07-07 06:28:04 51°13.9 2°55.633 22.0923 0.015568 0.084411 -3.020363
2011-07-07 06:28:10 51°13.903 2°55.634 22.0955 0.015568 0.084411 -3.020363
2011-07-07 06:28:15 51°13.906 2°55.634 22.0967 0.015568 0.084412 -3.020363
2011-07-07 06:28:19 51°13.908 2°55.635 22.0994 0.015568 0.084412 -3.020363
2011-07-07 06:28:24 51°13.911 2°55.636 22.1005 0.015568 0.084413 -3.020363
2011-07-07 06:28:29 51°13.914 2°55.637 22.0945 0.015568 0.084413 -3.020363
2011-07-07 06:28:34 51°13.917 2°55.638 22.0963 0.015568 0.084413 -3.020363
2011-07-07 06:28:39 51°13.919 2°55.64 22.0965 0.015568 0.084415 -3.020363
2011-07-07 06:28:44 51°13.922 2°55.64 22.0988 0.015568 0.084416 -3.020363
2011-07-07 06:28:49 51°13.924 2°55.641 22.0954 0.015568 0.084416 -3.020363
2011-07-07 06:28:55 51°13.927 2°55.642 22.1016 0.015568 0.084416 -3.020363
2011-07-07 06:28:59 51°13.929 2°55.642 22.1045 0.015568 0.084416 -3.020363
2011-07-07 06:29:04 51°13.932 2°55.643 22.1059 0.015568 0.084416 -3.020363
2011-07-07 06:29:09 51°13.934 2°55.643 22.1071 0.015568 0.084417 -3.020363
2011-07-07 06:29:15 51°13.937 2°55.644 22.1043 0.015568 0.084417 -3.020363
2011-07-07 06:29:19 51°13.938 2°55.644 22.1 0.015568 0.084418 -3.020363
2011-07-07 06:29:24 51°13.94 2°55.644 22.1039 0.015568 0.084418 -3.020363
2011-07-07 06:29:29 51°13.942 2°55.644 22.1026 0.015568 0.08442 -3.020363
2011-07-07 06:29:35 51°13.945 2°55.645 22.063 0.015568 0.08442 -3.020363
2011-07-07 06:29:39 51°13.946 2°55.645 22.1041 0.015568 0.08442 -3.020363
2011-07-07 06:29:44 51°13.948 2°55.646 22.0997 0.015568 0.084421 -3.020363
2011-07-07 06:29:50 51°13.949 2°55.646 22.0999 0.015568 0.084421 -3.020363
2011-07-07 06:29:55 51°13.95 2°55.646 22.1082 0.015568 0.084421 -3.020363
2011-07-07 06:29:59 51°13.951 2°55.646 22.1094 0.015568 0.084422 -3.020363
2011-07-07 06:30:04 51°13.952 2°55.647 22.1066 0.015568 0.084422 -3.020363
2011-07-07 06:30:10 51°13.953 2°55.647 22.0566 0.015568 0.084422 -3.020363
2011-07-07 06:30:15 51°13.953 2°55.647 22.0906 0.015568 0.084422 -3.020363
2011-07-07 06:30:19 51°13.953 2°55.647 22.0888 0.015568 0.084423 -3.020363
2011-07-07 06:30:25 51°13.953 2°55.647 22.0781 0.015568 0.084423 -3.020363
2011-07-07 06:30:30 51°13.953 2°55.647 22.0983 0.015466 0.08389 -3.020363
2011-07-07 06:30:35 51°13.953 2°55.647 22.0951 0.015568 0.084425 -3.020363
2011-07-07 06:30:39 51°13.952 2°55.646 22.0962 0.015568 0.084425 -3.020363
2011-07-07 06:30:44 51°13.952 2°55.646 22.1036 0.015466 0.08389 -3.020363
2011-07-07 06:30:49 51°13.951 2°55.646 22.0896 0.015466 0.083891 -3.020363
2011-07-07 06:30:55 51°13.95 2°55.646 22.1039 0.015568 0.084426 -3.020363
2011-07-07 06:30:59 51°13.949 2°55.646 22.0954 0.015466 0.083891 -3.020363
2011-07-07 06:31:05 51°13.948 2°55.646 22.1047 0.015466 0.083891 -3.020363
2011-07-07 06:31:10 51°13.947 2°55.646 22.1096 0.015568 0.084426 -3.020363
2011-07-07 06:31:15 51°13.946 2°55.646 22.1088 0.015466 0.083891 -3.020363
2011-07-07 06:31:20 51°13.944 2°55.646 22.1043 0.015568 0.084427 -3.020363
2011-07-07 06:31:26 51°13.943 2°55.646 22.1038 0.015466 0.083892 -3.020363
2011-07-07 06:31:31 51°13.942 2°55.646 22.1003 0.015466 0.083894 -3.020363
2011-07-07 06:31:37 51°13.941 2°55.646 22.1015 0.015466 0.083894 -3.020363
2011-07-07 06:31:43 51°13.94 2°55.646 22.102 0.015466 0.083894 -3.020363
2011-07-07 06:31:47 51°13.94 2°55.646 22.1168 0.015568 0.084428 -3.020363
2011-07-07 06:31:52 51°13.939 2°55.646 22.1095 0.015466 0.083894 -3.020363
2011-07-07 06:31:57 51°13.938 2°55.646 22.11 0.015466 0.083894 -3.020363
2011-07-07 06:32:02 51°13.937 2°55.646 22.1067 0.015466 0.083894 -3.020363
2011-07-07 06:32:07 51°13.937 2°55.646 22.1064 0.015466 0.083894 -3.020363
2011-07-07 06:32:12 51°13.936 2°55.646 22.1008 0.015466 0.083894 -3.020363
2011-07-07 06:32:17 51°13.935 2°55.647 22.104 0.015466 0.083895 -3.020363
2011-07-07 06:32:22 51°13.935 2°55.647 22.1024 0.015466 0.083895 -3.020363
2011-07-07 06:32:27 51°13.934 2°55.647 22.1033 0.015466 0.083895 -3.020363
2011-07-07 06:32:31 51°13.934 2°55.647 22.1044 0.015466 0.083895 -3.020363
2011-07-07 06:32:36 51°13.933 2°55.647 22.1094 0.015466 0.083895 -3.020363
2011-07-07 06:32:41 51°13.933 2°55.648 22.112 0.015466 0.083896 -3.020363
2011-07-07 06:32:46 51°13.933 2°55.647 22.1117 0.015466 0.083895 -3.020363
2011-07-07 06:32:51 51°13.932 2°55.648 22.1097 0.015466 0.083896 -3.020363
2011-07-07 06:32:55 51°13.932 2°55.647 22.1081 0.015466 0.083896 -3.020363
2011-07-07 06:33:01 51°13.932 2°55.648 22.1099 0.015466 0.083896 -3.020363
2011-07-07 06:33:06 51°13.932 2°55.648 22.1004 0.015466 0.083896 -3.020363
2011-07-07 06:33:10 51°13.932 2°55.648 22.0988 0.015466 0.083896 -3.020363
2011-07-07 06:33:15 51°13.931 2°55.648 22.099 0.015466 0.083896 -3.020363
2011-07-07 06:33:20 51°13.931 2°55.649 22.1031 0.015466 0.083896 -3.020363
2011-07-07 06:33:25 51°13.931 2°55.649 22.1068 0.015466 0.083896 -3.020363
2011-07-07 06:33:30 51°13.931 2°55.649 22.1089 0.015466 0.083897 -3.020363
2011-07-07 06:33:35 51°13.931 2°55.649 22.1097 0.015466 0.083897 -3.020363
2011-07-07 06:33:39 51°13.931 2°55.649 22.1103 0.015466 0.083897 -3.020363
2011-07-07 06:33:44 51°13.93 2°55.65 22.1109 0.015466 0.083897 -3.020363
2011-07-07 06:33:49 51°13.93 2°55.65 22.1241 0.015466 0.083897 -3.020363
2011-07-07 06:33:55 51°13.93 2°55.649 22.1289 0.015466 0.083897 -3.020363
2011-07-07 06:33:59 51°13.93 2°55.649 22.129 0.015466 0.083897 -3.020363
2011-07-07 06:34:04 51°13.93 2°55.649 22.1152 0.015466 0.083897 -3.020363
2011-07-07 06:34:09 51°13.93 2°55.649 22.1156 0.015466 0.083897 -3.020363
2011-07-07 06:34:15 51°13.931 2°55.649 22.1266 0.015466 0.083897 -3.020363
2011-07-07 06:34:19 51°13.931 2°55.649 22.1302 0.015466 0.083897 -3.020363
2011-07-07 06:34:24 51°13.932 2°55.649 22.1295 0.015466 0.083897 -3.020363
2011-07-07 06:34:30 51°13.933 2°55.649 22.1245 0.015466 0.083897 -3.020363
2011-07-07 06:34:35 51°13.934 2°55.649 22.1563 0.015466 0.083897 -3.020363
2011-07-07 06:34:39 51°13.935 2°55.648 22.1626 0.015466 0.083897 -3.020363
2011-07-07 06:34:44 51°13.937 2°55.647 22.1451 0.015466 0.083897 -3.020363
2011-07-07 06:34:49 51°13.939 2°55.644 22.129 0.015466 0.083897 -3.020363
2011-07-07 06:34:55 51°13.943 2°55.641 22.127 0.015466 0.083897 -3.020363
2011-07-07 06:34:59 51°13.946 2°55.638 22.129 0.015466 0.083897 -3.020363
2011-07-07 06:35:04 51°13.95 2°55.634 22.1389 0.015466 0.083897 -3.020363
2011-07-07 06:35:09 51°13.955 2°55.629 22.1394 0.015466 0.083897 -3.020363
2011-07-07 06:35:15 51°13.963 2°55.621 22.1329 0.015466 0.083896 -3.020363
2011-07-07 06:35:19 51°13.968 2°55.616 22.1251 0.015466 0.083896 -3.020363
2011-07-07 06:35:24 51°13.976 2°55.608 22.1148 0.015466 0.083897 -3.020363
2011-07-07 06:35:30 51°13.985 2°55.597 22.0771 0.015466 0.083896 -3.020363
2011-07-07 06:35:35 51°13.994 2°55.588 22.0796 0.015466 0.083896 -3.020363
2011-07-07 06:35:39 51°14.002 2°55.58 22.0872 0.015466 0.083896 -3.020363
2011-07-07 06:35:44 51°14.011 2°55.57 22.0922 0.015466 0.083896 -3.020363
2011-07-07 06:35:49 51°14.021 2°55.559 22.0641 0.015466 0.083896 -3.020363
2011-07-07 06:35:55 51°14.033 2°55.545 22.0431 0.015466 0.083896 -3.020363
2011-07-07 06:35:59 51°14.042 2°55.536 22.0192 0.015466 0.083896 -3.020363
2011-07-07 06:36:04 51°14.052 2°55.524 22.0152 0.015466 0.083896 -3.020363
2011-07-07 06:36:09 51°14.063 2°55.512 22.007 0.015466 0.083896 -3.020363
2011-07-07 06:36:15 51°14.076 2°55.497 22.02 0.015466 0.083895 -3.020363
2011-07-07 06:36:19 51°14.084 2°55.488 22.0418 0.015466 0.083895 -3.020363
2011-07-07 06:36:24 51°14.095 2°55.476 22.0466 0.015466 0.083895 -3.020363
2011-07-07 06:36:30 51°14.109 2°55.462 22.0612 0.015466 0.083895 -3.020363
2011-07-07 06:36:35 51°14.12 2°55.45 22.0837 0.015466 0.083895 -3.020363
2011-07-07 06:36:39 51°14.129 2°55.441 22.052 0.015466 0.083895 -3.020363
2011-07-07 06:36:45 51°14.142 2°55.427 22.0368 0.015466 0.083895 -3.020363
2011-07-07 06:36:50 51°14.154 2°55.415 22.0914 0.015466 0.083895 -3.020363
2011-07-07 06:36:55 51°14.165 2°55.403 22.0687 0.015466 0.083894 -3.020363
2011-07-07 06:37:00 51°14.177 2°55.392 22.0627 0.015466 0.083894 -3.020363
2011-07-07 06:37:05 51°14.188 2°55.38 22.0196 0.015466 0.083894 -3.020363
2011-07-07 06:37:10 51°14.199 2°55.369 22.095 0.015466 0.083894 -3.020363
2011-07-07 06:37:15 51°14.211 2°55.358 22.102 0.015466 0.083895 -3.020363
2011-07-07 06:37:20 51°14.222 2°55.347 22.1008 0.015466 0.083894 -3.020363
2011-07-07 06:37:25 51°14.233 2°55.335 22.0763 0.015466 0.083894 -3.020363
2011-07-07 06:37:30 51°14.244 2°55.324 22.1031 0.015466 0.083895 -3.020363
2011-07-07 06:37:35 51°14.256 2°55.313 22.0886 0.015466 0.083895 -3.020363
2011-07-07 06:37:40 51°14.267 2°55.302 22.1213 0.015466 0.083894 -3.020363
2011-07-07 06:37:45 51°14.278 2°55.291 22.136 0.015466 0.083895 -3.020363
2011-07-07 06:37:50 51°14.29 2°55.28 22.0987 0.015466 0.083894 -3.020363
2011-07-07 06:37:55 51°14.301 2°55.268 22.096 0.015466 0.083894 -3.020363
2011-07-07 06:38:00 51°14.313 2°55.257 22.1088 0.015466 0.083894 -3.020363
2011-07-07 06:38:05 51°14.325 2°55.245 22.114 0.015466 0.083894 -3.020363
2011-07-07 06:38:10 51°14.337 2°55.233 22.0968 0.015466 0.083894 -3.020363
2011-07-07 06:38:15 51°14.348 2°55.221 22.0876 0.015466 0.083894 -3.020363
2011-07-07 06:38:19 51°14.358 2°55.212 22.0927 0.015466 0.083895 -3.020363
2011-07-07 06:38:25 51°14.373 2°55.198 22.131 0.015466 0.083894 -3.020363
2011-07-07 06:38:30 51°14.385 2°55.186 22.091 0.015466 0.083894 -3.020363
2011-07-07 06:38:35 51°14.397 2°55.174 22.1076 0.015466 0.083894 -3.020363
2011-07-07 06:38:39 51°14.406 2°55.164 22.1143 0.015466 0.083895 -3.020363
2011-07-07 06:38:44 51°14.419 2°55.152 22.0962 0.015466 0.083895 -3.020363
2011-07-07 06:38:50 51°14.434 2°55.137 22.1235 0.015466 0.083895 -3.020363
2011-07-07 06:38:54 51°14.444 2°55.128 22.1294 0.015466 0.083894 -3.020363
2011-07-07 06:38:59 51°14.456 2°55.115 22.1225 0.015466 0.083895 -3.020363
2011-07-07 06:39:04 51°14.469 2°55.102 22.1064 0.015466 0.083895 -3.020363
2011-07-07 06:39:09 51°14.481 2°55.089 22.1138 0.015466 0.083895 -3.020363
2011-07-07 06:39:15 51°14.496 2°55.073 22.1151 0.015466 0.083896 -3.020363
2011-07-07 06:39:19 51°14.506 2°55.063 22.0831 0.015466 0.083896 -3.020363
2011-07-07 06:39:24 51°14.519 2°55.05 22.0979 0.015466 0.083896 -3.020363
2011-07-07 06:39:30 51°14.535 2°55.035 22.1151 0.015466 0.083896 -3.020363
2011-07-07 06:39:35 51°14.548 2°55.022 22.083 0.015466 0.083896 -3.020363
2011-07-07 06:39:39 51°14.558 2°55.011 22.1139 0.015466 0.083896 -3.020363
2011-07-07 06:39:44 51°14.572 2°54.999 22.1123 0.015466 0.083897 -3.020363
2011-07-07 06:39:49 51°14.585 2°54.986 22.0768 0.015466 0.083897 -3.020363
2011-07-07 06:39:55 51°14.601 2°54.97 22.1138 0.015466 0.083897 -3.020363
2011-07-07 06:39:59 51°14.611 2°54.959 22.0931 0.015466 0.083897 -3.020363
2011-07-07 06:40:04 51°14.624 2°54.946 22.0786 0.015466 0.083897 -3.020363
2011-07-07 06:40:10 51°14.64 2°54.93 22.1042 0.015466 0.083897 -3.020363
2011-07-07 06:40:15 51°14.653 2°54.917 22.095 0.015466 0.083897 -3.020363
2011-07-07 06:40:19 51°14.664 2°54.906 22.0802 0.015466 0.083899 -3.020363
2011-07-07 06:40:24 51°14.677 2°54.893 22.0853 0.015466 0.083899 -3.020363
2011-07-07 06:40:29 51°14.69 2°54.879 22.092 0.015466 0.083899 -3.020363
2011-07-07 06:40:35 51°14.706 2°54.862 22.0712 0.015466 0.083899 -3.020363
2011-07-07 06:40:39 51°14.717 2°54.851 22.0994 0.015466 0.083899 -3.020363
2011-07-07 06:40:44 51°14.73 2°54.837 22.0719 0.015466 0.0839 -3.020363
2011-07-07 06:40:49 51°14.743 2°54.823 22.1144 0.015466 0.083899 -3.020363
2011-07-07 06:40:55 51°14.76 2°54.807 22.1159 0.015466 0.0839 -3.020363
2011-07-07 06:40:59 51°14.771 2°54.795 22.0821 0.015466 0.0839 -3.020363
2011-07-07 06:41:04 51°14.785 2°54.78 22.0657 0.015466 0.0839 -3.020363
2011-07-07 06:41:10 51°14.802 2°54.762 22.1068 0.015466 0.0839 -3.020363
2011-07-07 06:41:15 51°14.816 2°54.747 22.0789 0.015466 0.083901 -3.020363
2011-07-07 06:41:19 51°14.827 2°54.735 22.0749 0.015466 0.083901 -3.020363
2011-07-07 06:41:24 51°14.841 2°54.72 22.0806 0.015466 0.083901 -3.020363
2011-07-07 06:41:29 51°14.854 2°54.704 22.0699 0.015466 0.083901 -3.020363
2011-07-07 06:41:35 51°14.871 2°54.685 22.0508 0.015466 0.083901 -3.020363
2011-07-07 06:41:39 51°14.882 2°54.672 22.0316 0.015466 0.083901 -3.020363
2011-07-07 06:41:44 51°14.897 2°54.657 22.0737 0.015466 0.083902 -3.020363
2011-07-07 06:41:49 51°14.911 2°54.642 22.0424 0.015466 0.083902 -3.020363
2011-07-07 06:41:55 51°14.93 2°54.625 22.0557 0.015466 0.083902 -3.020363
2011-07-07 06:41:59 51°14.942 2°54.614 22.0793 0.015466 0.083902 -3.020363
2011-07-07 06:42:04 51°14.958 2°54.602 22.075 0.015466 0.083902 -3.020363
2011-07-07 06:42:09 51°14.974 2°54.589 22.0959 0.015466 0.083903 -3.020363
2011-07-07 06:42:15 51°14.994 2°54.575 22.0634 0.015466 0.083903 -3.020363
2011-07-07 06:42:19 51°15.007 2°54.566 22.0506 0.015466 0.083903 -3.020363
2011-07-07 06:42:24 51°15.024 2°54.556 22.0221 0.015466 0.083905 -3.020363
2011-07-07 06:42:29 51°15.042 2°54.546 22.0651 0.015466 0.083905 -3.020363
2011-07-07 06:42:35 51°15.063 2°54.536 22.0242 0.015466 0.083905 -3.020363
2011-07-07 06:42:39 51°15.077 2°54.53 22.0662 0.015466 0.083905 -3.020363
2011-07-07 06:42:44 51°15.095 2°54.524 22.0771 0.015466 0.083905 -3.020363
2011-07-07 06:42:49 51°15.113 2°54.519 22.0744 0.015466 0.083906 -3.020363
2011-07-07 06:42:55 51°15.135 2°54.515 22.0839 0.015466 0.083906 -3.020363
2011-07-07 06:42:59 51°15.15 2°54.512 22.0847 0.015466 0.083907 -3.020363
2011-07-07 06:43:04 51°15.168 2°54.51 22.0684 0.015466 0.083907 -3.020363
2011-07-07 06:43:09 51°15.186 2°54.507 22.1025 0.015466 0.083907 -3.020363
2011-07-07 06:43:15 51°15.209 2°54.505 22.0882 0.015466 0.083907 -3.020363
2011-07-07 06:43:19 51°15.224 2°54.504 22.0984 0.015466 0.083908 -3.020363
2011-07-07 06:43:24 51°15.242 2°54.503 22.096 0.015466 0.083908 -3.020363
2011-07-07 06:43:30 51°15.264 2°54.501 22.0965 0.015466 0.08391 -3.020363
2011-07-07 06:43:35 51°15.283 2°54.5 22.0974 0.015466 0.08391 -3.020363
2011-07-07 06:43:39 51°15.298 2°54.499 22.1093 0.015466 0.08391 -3.020363
2011-07-07 06:43:44 51°15.317 2°54.497 22.0642 0.015466 0.08391 -3.020363
2011-07-07 06:43:49 51°15.335 2°54.494 22.0972 0.015466 0.083911 -3.020363
2011-07-07 06:43:55 51°15.357 2°54.492 22.0637 0.015466 0.083911 -3.020363
2011-07-07 06:43:59 51°15.372 2°54.489 22.0866 0.015466 0.083912 -3.020363
2011-07-07 06:44:04 51°15.391 2°54.488 22.0708 0.015466 0.083912 -3.020363
2011-07-07 06:44:10 51°15.413 2°54.484 22.0959 0.015466 0.083912 -3.020363
2011-07-07 06:44:15 51°15.431 2°54.482 22.0624 0.015466 0.083912 -3.020363
2011-07-07 06:44:19 51°15.445 2°54.48 22.0903 0.015466 0.083913 -3.020363
2011-07-07 06:44:24 51°15.464 2°54.477 22.0936 0.015466 0.083913 -3.020363
2011-07-07 06:44:29 51°15.482 2°54.474 22.0928 0.015466 0.083914 -3.020363
2011-07-07 06:44:35 51°15.504 2°54.471 22.0526 0.015466 0.083914 -3.020363
2011-07-07 06:44:39 51°15.519 2°54.469 22.0604 0.015466 0.083914 -3.020363
2011-07-07 06:44:44 51°15.537 2°54.467 22.047 0.015466 0.083914 -3.020363
2011-07-07 06:44:49 51°15.556 2°54.465 22.0219 0.015466 0.083916 -3.020363
2011-07-07 06:44:55 51°15.578 2°54.464 22.044 0.015466 0.083916 -3.020363
2011-07-07 06:44:59 51°15.593 2°54.465 22.0165 0.015466 0.083916 -3.020363
2011-07-07 06:45:04 51°15.611 2°54.466 22.0404 0.015466 0.083916 -3.020363
2011-07-07 06:45:10 51°15.633 2°54.471 22.0529 0.015466 0.083916 -3.020363
2011-07-07 06:45:15 51°15.652 2°54.476 22.0474 0.015466 0.083916 -3.020363
2011-07-07 06:45:19 51°15.666 2°54.481 22.0222 0.015466 0.083917 -3.020363
2011-07-07 06:45:24 51°15.684 2°54.488 22.0589 0.015466 0.083917 -3.020363
2011-07-07 06:45:29 51°15.702 2°54.497 22.0543 0.015466 0.083917 -3.020363
2011-07-07 06:45:35 51°15.723 2°54.509 22.0722 0.015466 0.083917 -3.020363
2011-07-07 06:45:39 51°15.737 2°54.518 22.0444 0.015466 0.083918 -3.020363
2011-07-07 06:45:44 51°15.753 2°54.53 22.0637 0.015466 0.083918 -3.020363
2011-07-07 06:45:49 51°15.77 2°54.544 22.07 0.015466 0.083919 -3.020363
2011-07-07 06:45:55 51°15.789 2°54.561 22.0841 0.015466 0.083919 -3.020363
2011-07-07 06:45:59 51°15.802 2°54.573 22.0815 0.015466 0.083919 -3.020363
2011-07-07 06:46:04 51°15.818 2°54.589 22.075 0.015466 0.083919 -3.020363
2011-07-07 06:46:09 51°15.834 2°54.605 22.0873 0.015466 0.083921 -3.020363
2011-07-07 06:46:15 51°15.852 2°54.625 22.0282 0.015466 0.083921 -3.020363
2011-07-07 06:46:19 51°15.864 2°54.639 22.0567 0.015466 0.083922 -3.020363
2011-07-07 06:46:24 51°15.879 2°54.657 22.0607 0.015466 0.083922 -3.020363
2011-07-07 06:46:29 51°15.893 2°54.676 22.0629 0.015466 0.083922 -3.020363
2011-07-07 06:46:35 51°15.909 2°54.699 22.0786 0.015466 0.083922 -3.020363
2011-07-07 06:46:39 51°15.92 2°54.716 22.067 0.015466 0.083924 -3.020363
2011-07-07 06:46:44 51°15.933 2°54.736 22.0774 0.015466 0.083923 -3.020363
2011-07-07 06:46:49 51°15.946 2°54.757 22.0859 0.015466 0.083924 -3.020363
2011-07-07 06:46:55 51°15.962 2°54.783 22.0714 0.015466 0.083924 -3.020363
2011-07-07 06:46:59 51°15.972 2°54.8 22.0918 0.015466 0.083924 -3.020363
2011-07-07 06:47:04 51°15.984 2°54.822 22.0507 0.015466 0.083924 -3.020363
2011-07-07 06:47:09 51°15.997 2°54.844 22.0835 0.015466 0.083926 -3.020363
2011-07-07 06:47:15 51°16.011 2°54.871 22.0647 0.015466 0.083926 -3.020363
2011-07-07 06:47:19 51°16.021 2°54.889 22.0698 0.015466 0.083927 -3.020363
2011-07-07 06:47:25 51°16.035 2°54.917 22.0821 0.015466 0.083927 -3.020363
2011-07-07 06:47:30 51°16.047 2°54.939 22.0757 0.015466 0.083928 -3.020363
2011-07-07 06:47:34 51°16.056 2°54.958 22.0855 0.015466 0.083928 -3.020363
2011-07-07 06:47:39 51°16.068 2°54.981 22.0886 0.015466 0.083928 -3.020363
2011-07-07 06:47:44 51°16.08 2°55.005 22.0887 0.015466 0.083928 -3.020363
2011-07-07 06:47:50 51°16.094 2°55.033 22.0896 0.015466 0.083929 -3.020363
2011-07-07 06:47:55 51°16.105 2°55.056 22.0963 0.015466 0.08393 -3.020363
2011-07-07 06:47:59 51°16.114 2°55.075 22.0958 0.015466 0.08393 -3.020363
2011-07-07 06:48:04 51°16.126 2°55.098 22.0823 0.015466 0.08393 -3.020363
2011-07-07 06:48:10 51°16.14 2°55.126 22.0917 0.015466 0.083932 -3.020363
2011-07-07 06:48:15 51°16.152 2°55.148 22.1005 0.015466 0.083932 -3.020363
2011-07-07 06:48:19 51°16.162 2°55.166 22.0812 0.015466 0.083932 -3.020363
2011-07-07 06:48:24 51°16.175 2°55.189 22.0842 0.015466 0.083933 -3.020363
2011-07-07 06:48:29 51°16.188 2°55.211 22.0907 0.015466 0.083933 -3.020363
2011-07-07 06:48:34 51°16.2 2°55.233 22.1016 0.015466 0.083933 -3.020363
2011-07-07 06:48:39 51°16.213 2°55.255 22.0745 0.015466 0.083933 -3.020363
2011-07-07 06:48:43 51°16.223 2°55.272 22.0913 0.015466 0.083934 -3.020363
2011-07-07 06:48:49 51°16.238 2°55.299 22.0855 0.015466 0.083934 -3.020363
2011-07-07 06:48:54 51°16.251 2°55.32 22.094 0.015466 0.083935 -3.020363
2011-07-07 06:48:59 51°16.264 2°55.342 22.0635 0.015466 0.083934 -3.020363
2011-07-07 06:49:04 51°16.277 2°55.363 22.0953 0.015466 0.083934 -3.020363
2011-07-07 06:49:09 51°16.29 2°55.386 22.0455 0.015466 0.083935 -3.020363
2011-07-07 06:49:15 51°16.305 2°55.412 22.0501 0.015466 0.083935 -3.020363
2011-07-07 06:49:19 51°16.314 2°55.43 22.0594 0.015466 0.083937 -3.020363
2011-07-07 06:49:24 51°16.326 2°55.453 22.0784 0.015466 0.083937 -3.020363
2011-07-07 06:49:30 51°16.34 2°55.481 22.0876 0.015466 0.083938 -3.020363
2011-07-07 06:49:34 51°16.35 2°55.5 22.0765 0.015466 0.083938 -3.020363
2011-07-07 06:49:39 51°16.359 2°55.524 22.0872 0.015466 0.083938 -3.020363
2011-07-07 06:49:43 51°16.369 2°55.543 22.102 0.015466 0.083939 -3.020363
2011-07-07 06:49:50 51°16.385 2°55.576 22.0797 0.015466 0.083939 -3.020363
2011-07-07 06:49:54 51°16.394 2°55.595 22.1009 0.015466 0.083939 -3.020363
2011-07-07 06:49:59 51°16.405 2°55.618 22.0773 0.015466 0.08394 -3.020363
2011-07-07 06:50:04 51°16.416 2°55.642 22.0802 0.015466 0.08394 -3.020363
2011-07-07 06:50:10 51°16.429 2°55.671 22.1049 0.015466 0.08394 -3.020363
2011-07-07 06:50:15 51°16.44 2°55.695 22.0933 0.015466 0.083941 -3.020363
2011-07-07 06:50:19 51°16.449 2°55.713 22.1167 0.015466 0.083941 -3.020363
2011-07-07 06:50:24 51°16.46 2°55.737 22.1136 0.015466 0.083943 -3.020363
2011-07-07 06:50:30 51°16.474 2°55.765 22.1107 0.015466 0.083943 -3.020363
2011-07-07 06:50:35 51°16.486 2°55.787 22.1059 0.015466 0.083944 -3.020363
2011-07-07 06:50:39 51°16.496 2°55.805 22.0931 0.015466 0.083944 -3.020363
2011-07-07 06:50:44 51°16.508 2°55.827 22.1109 0.015466 0.083944 -3.020363
2011-07-07 06:50:50 51°16.523 2°55.854 22.0844 0.015466 0.083944 -3.020363
2011-07-07 06:50:55 51°16.536 2°55.875 22.0946 0.015466 0.083945 -3.020363
2011-07-07 06:50:59 51°16.546 2°55.893 22.0784 0.015466 0.083945 -3.020363
2011-07-07 06:51:04 51°16.558 2°55.914 22.0805 0.015466 0.083945 -3.020363
2011-07-07 06:51:09 51°16.571 2°55.936 22.0719 0.015466 0.083946 -3.020363
2011-07-07 06:51:14 51°16.583 2°55.959 22.0641 0.015466 0.083946 -3.020363
2011-07-07 06:51:19 51°16.595 2°55.982 22.1038 0.015466 0.083948 -3.020363
2011-07-07 06:51:24 51°16.606 2°56.005 22.1047 0.015466 0.083948 -3.020363
2011-07-07 06:51:30 51°16.62 2°56.033 22.0924 0.015466 0.083949 -3.020363
2011-07-07 06:51:35 51°16.631 2°56.057 22.0773 0.015466 0.083949 -3.020363
2011-07-07 06:51:39 51°16.641 2°56.075 22.0828 0.015466 0.083948 -3.020363
2011-07-07 06:51:44 51°16.652 2°56.099 22.1007 0.015466 0.083949 -3.020363
2011-07-07 06:51:49 51°16.663 2°56.123 22.085 0.015466 0.083949 -3.020363
2011-07-07 06:51:55 51°16.676 2°56.151 22.1003 0.015466 0.08395 -3.020363
2011-07-07 06:51:59 51°16.685 2°56.171 22.1024 0.015466 0.08395 -3.020363
2011-07-07 06:52:04 51°16.696 2°56.194 22.1124 0.015466 0.083951 -3.020363
2011-07-07 06:52:10 51°16.71 2°56.223 22.1103 0.015466 0.083951 -3.020363
2011-07-07 06:52:14 51°16.719 2°56.241 22.1139 0.015466 0.083951 -3.020363
2011-07-07 06:52:19 51°16.73 2°56.265 22.112 0.015466 0.083953 -3.020363
2011-07-07 06:52:23 51°16.74 2°56.284 22.1139 0.015466 0.083954 -3.020363
2011-07-07 06:52:30 51°16.756 2°56.316 22.1047 0.015466 0.083954 -3.020363
2011-07-07 06:52:34 51°16.766 2°56.334 22.1073 0.015466 0.083954 -3.020363
2011-07-07 06:52:39 51°16.778 2°56.357 22.1104 0.015466 0.083954 -3.020363
2011-07-07 06:52:44 51°16.79 2°56.379 22.0922 0.015466 0.083954 -3.020363
2011-07-07 06:52:49 51°16.803 2°56.401 22.1052 0.015466 0.083955 -3.020363
2011-07-07 06:52:55 51°16.818 2°56.427 22.0893 0.015466 0.083955 -3.020363
2011-07-07 06:52:59 51°16.829 2°56.444 22.1042 0.015466 0.083956 -3.020363
2011-07-07 06:53:04 51°16.841 2°56.466 22.0866 0.015466 0.083956 -3.020363
2011-07-07 06:53:09 51°16.854 2°56.487 22.1039 0.015466 0.083956 -3.020363
2011-07-07 06:53:14 51°16.867 2°56.509 22.1048 0.015466 0.083956 -3.020363
2011-07-07 06:53:19 51°16.88 2°56.531 22.0961 0.015466 0.083957 -3.020363
2011-07-07 06:53:24 51°16.892 2°56.554 22.0886 0.015466 0.083957 -3.020363
2011-07-07 06:53:30 51°16.907 2°56.581 22.0865 0.015466 0.083957 -3.020363
2011-07-07 06:53:34 51°16.916 2°56.599 22.1001 0.015466 0.083957 -3.020363
2011-07-07 06:53:39 51°16.928 2°56.623 22.1065 0.015466 0.083959 -3.020363
2011-07-07 06:53:44 51°16.939 2°56.646 22.1021 0.015466 0.083959 -3.020363
2011-07-07 06:53:49 51°16.951 2°56.669 22.1158 0.015466 0.08396 -3.020363
2011-07-07 06:53:54 51°16.962 2°56.693 22.1064 0.015466 0.08396 -3.020363
2011-07-07 06:53:59 51°16.974 2°56.716 22.112 0.015466 0.083961 -3.020363
2011-07-07 06:54:04 51°16.985 2°56.74 22.0829 0.015466 0.083961 -3.020363
2011-07-07 06:54:10 51°16.998 2°56.769 22.1175 0.015466 0.083961 -3.020363
2011-07-07 06:54:14 51°17.007 2°56.788 22.106 0.015466 0.083962 -3.020363
2011-07-07 06:54:19 51°17.018 2°56.812 22.1172 0.015466 0.083962 -3.020363
2011-07-07 06:54:24 51°17.03 2°56.836 22.1229 0.015466 0.083962 -3.020363
2011-07-07 06:54:29 51°17.041 2°56.859 22.1237 0.015466 0.083964 -3.020363
2011-07-07 06:54:35 51°17.055 2°56.887 22.093 0.015466 0.083964 -3.020363
2011-07-07 06:54:39 51°17.065 2°56.905 22.128 0.015466 0.083964 -3.020363
2011-07-07 06:54:44 51°17.077 2°56.928 22.1086 0.015466 0.083964 -3.020363
2011-07-07 06:54:49 51°17.089 2°56.95 22.1201 0.015466 0.083965 -3.020363
2011-07-07 06:54:55 51°17.104 2°56.976 22.1108 0.015466 0.083966 -3.020363
2011-07-07 06:54:59 51°17.115 2°56.994 22.1234 0.015466 0.083966 -3.020363
2011-07-07 06:55:03 51°17.125 2°57.011 22.108 0.015466 0.083966 -3.020363
2011-07-07 06:55:09 51°17.14 2°57.037 22.0919 0.015466 0.083966 -3.020363
2011-07-07 06:55:14 51°17.153 2°57.059 22.0897 0.015466 0.083967 -3.020363
2011-07-07 06:55:19 51°17.166 2°57.081 22.099 0.015466 0.083967 -3.020363
2011-07-07 06:55:24 51°17.178 2°57.103 22.0788 0.015466 0.083967 -3.020363
2011-07-07 06:55:29 51°17.191 2°57.125 22.0822 0.015466 0.083969 -3.020363
2011-07-07 06:55:34 51°17.203 2°57.148 22.1058 0.015466 0.083969 -3.020363
2011-07-07 06:55:39 51°17.214 2°57.172 22.1083 0.015466 0.083969 -3.020363
2011-07-07 06:55:44 51°17.226 2°57.195 22.0944 0.015466 0.083969 -3.020363
2011-07-07 06:55:50 51°17.239 2°57.224 22.1256 0.015466 0.08397 -3.020363
2011-07-07 06:55:55 51°17.25 2°57.247 22.1098 0.015466 0.08397 -3.020363
2011-07-07 06:55:59 51°17.259 2°57.267 22.1347 0.015466 0.08397 -3.020363
2011-07-07 06:56:04 51°17.27 2°57.291 22.108 0.015466 0.08397 -3.020363
2011-07-07 06:56:10 51°17.284 2°57.32 22.125 0.015466 0.083971 -3.020363
2011-07-07 06:56:14 51°17.292 2°57.339 22.1173 0.015466 0.083972 -3.020363
2011-07-07 06:56:19 51°17.304 2°57.363 22.1207 0.015466 0.083972 -3.020363
2011-07-07 06:56:24 51°17.315 2°57.387 22.1153 0.015466 0.083973 -3.020363
2011-07-07 06:56:30 51°17.328 2°57.416 22.1194 0.015466 0.083973 -3.020363
2011-07-07 06:56:34 51°17.337 2°57.435 22.1296 0.015466 0.083973 -3.020363
2011-07-07 06:56:39 51°17.348 2°57.459 22.1057 0.015466 0.083973 -3.020363
2011-07-07 06:56:44 51°17.36 2°57.482 22.1343 0.015466 0.083973 -3.020363
2011-07-07 06:56:50 51°17.373 2°57.511 22.1248 0.015466 0.083975 -3.020363
2011-07-07 06:56:55 51°17.385 2°57.534 22.1356 0.015466 0.083975 -3.020363
2011-07-07 06:56:59 51°17.394 2°57.553 22.1395 0.015466 0.083976 -3.020363
2011-07-07 06:57:04 51°17.406 2°57.576 22.1114 0.015466 0.083976 -3.020363
2011-07-07 06:57:09 51°17.419 2°57.598 22.1404 0.015466 0.083976 -3.020363
2011-07-07 06:57:15 51°17.433 2°57.625 22.0927 0.015466 0.083977 -3.020363
2011-07-07 06:57:19 51°17.444 2°57.642 22.111 0.015466 0.083977 -3.020363
2011-07-07 06:57:24 51°17.456 2°57.664 22.124 0.015466 0.083978 -3.020363
2011-07-07 06:57:29 51°17.469 2°57.687 22.1046 0.015466 0.083978 -3.020363
2011-07-07 06:57:35 51°17.484 2°57.713 22.1338 0.015466 0.083978 -3.020363
2011-07-07 06:57:39 51°17.493 2°57.731 22.1052 0.015466 0.083978 -3.020363
2011-07-07 06:57:43 51°17.503 2°57.749 22.1192 0.015466 0.08398 -3.020363
2011-07-07 06:57:49 51°17.517 2°57.776 22.1148 0.015466 0.08398 -3.020363
2011-07-07 06:57:54 51°17.529 2°57.798 22.1148 0.015466 0.08398 -3.020363
2011-07-07 06:57:59 51°17.54 2°57.822 22.1114 0.015466 0.08398 -3.020363
2011-07-07 06:58:04 51°17.551 2°57.845 22.1435 0.015466 0.08398 -3.020363
2011-07-07 06:58:09 51°17.562 2°57.869 22.1405 0.015466 0.083981 -3.020363
2011-07-07 06:58:15 51°17.576 2°57.897 22.1077 0.015466 0.083981 -3.020363
2011-07-07 06:58:19 51°17.585 2°57.916 22.1555 0.015466 0.083982 -3.020363
2011-07-07 06:58:23 51°17.594 2°57.935 22.1542 0.015466 0.083982 -3.020363
2011-07-07 06:58:30 51°17.61 2°57.967 22.133 0.015466 0.083982 -3.020363
2011-07-07 06:58:34 51°17.619 2°57.985 22.1412 0.015466 0.083982 -3.020363
2011-07-07 06:58:39 51°17.631 2°58.008 22.1171 0.015466 0.083983 -3.020363
2011-07-07 06:58:44 51°17.644 2°58.03 22.1418 0.015466 0.083983 -3.020363
2011-07-07 06:58:49 51°17.655 2°58.053 22.1308 0.015466 0.083985 -3.020363
2011-07-07 06:58:55 51°17.67 2°58.079 22.1446 0.015466 0.083985 -3.020363
2011-07-07 06:58:59 51°17.68 2°58.097 22.1403 0.015466 0.083985 -3.020363
2011-07-07 06:59:04 51°17.693 2°58.119 22.1354 0.015466 0.083985 -3.020363
2011-07-07 06:59:10 51°17.708 2°58.145 22.111 0.015466 0.083986 -3.020363
2011-07-07 06:59:15 51°17.721 2°58.165 22.1327 0.015466 0.083986 -3.020363
2011-07-07 06:59:19 51°17.732 2°58.182 22.1191 0.015466 0.083986 -3.020363
2011-07-07 06:59:24 51°17.745 2°58.203 22.1372 0.015466 0.083987 -3.020363
2011-07-07 06:59:30 51°17.76 2°58.229 22.1164 0.015466 0.083987 -3.020363
2011-07-07 06:59:35 51°17.774 2°58.25 22.1288 0.015466 0.083988 -3.020363
2011-07-07 06:59:39 51°17.783 2°58.267 22.1382 0.015466 0.083988 -3.020363
2011-07-07 06:59:44 51°17.796 2°58.289 22.095 0.015466 0.083988 -3.020363
2011-07-07 06:59:49 51°17.809 2°58.31 22.1299 0.015466 0.083988 -3.020363
2011-07-07 06:59:54 51°17.821 2°58.333 22.1001 0.015466 0.083988 -3.020363
2011-07-07 06:59:59 51°17.833 2°58.355 22.1277 0.015466 0.083989 -3.020363
2011-07-07 07:00:04 51°17.844 2°58.378 22.1346 0.015466 0.083989 -3.020363
2011-07-07 07:00:10 51°17.858 2°58.406 22.1288 0.015466 0.083989 -3.020363
2011-07-07 07:00:15 51°17.869 2°58.43 22.147 0.015466 0.083989 -3.020363
2011-07-07 07:00:19 51°17.878 2°58.449 22.1345 0.015466 0.083991 -3.020363
2011-07-07 07:00:24 51°17.889 2°58.473 22.1389 0.015466 0.083992 -3.020363
2011-07-07 07:00:29 51°17.899 2°58.497 22.1507 0.015466 0.083992 -3.020363
2011-07-07 07:00:35 51°17.912 2°58.526 22.1384 0.015466 0.083992 -3.020363
2011-07-07 07:00:39 51°17.921 2°58.545 22.149 0.015466 0.083992 -3.020363
2011-07-07 07:00:44 51°17.932 2°58.569 22.1672 0.015466 0.083992 -3.020363
2011-07-07 07:00:50 51°17.945 2°58.597 22.1531 0.015466 0.083993 -3.020363
2011-07-07 07:00:54 51°17.955 2°58.615 22.1572 0.015466 0.083993 -3.020363
2011-07-07 07:00:59 51°17.967 2°58.637 22.1263 0.015466 0.083994 -3.020363
2011-07-07 07:01:04 51°17.979 2°58.659 22.157 0.015466 0.083994 -3.020363
2011-07-07 07:01:09 51°17.991 2°58.681 22.1366 0.015466 0.083994 -3.020363
2011-07-07 07:01:14 51°18.004 2°58.703 22.1578 0.015466 0.083994 -3.020363
2011-07-07 07:01:19 51°18.017 2°58.725 22.1308 0.015466 0.083996 -3.020363
2011-07-07 07:01:24 51°18.03 2°58.745 22.157 0.015466 0.083996 -3.020363
2011-07-07 07:01:30 51°18.045 2°58.772 22.1268 0.015466 0.083997 -3.020363
2011-07-07 07:01:34 51°18.056 2°58.788 22.1483 0.015466 0.083997 -3.020363
2011-07-07 07:01:39 51°18.069 2°58.81 22.1158 0.015466 0.083997 -3.020363
2011-07-07 07:01:44 51°18.082 2°58.831 22.1306 0.015466 0.083997 -3.020363
2011-07-07 07:01:49 51°18.094 2°58.853 22.1573 0.015466 0.083997 -3.020363
2011-07-07 07:01:55 51°18.11 2°58.879 22.1284 0.015466 0.083998 -3.020363
2011-07-07 07:01:59 51°18.12 2°58.896 22.1554 0.015466 0.083998 -3.020363
2011-07-07 07:02:04 51°18.132 2°58.918 22.159 0.015466 0.083998 -3.020363
2011-07-07 07:02:09 51°18.145 2°58.94 22.1293 0.015466 0.083999 -3.020363
2011-07-07 07:02:14 51°18.158 2°58.961 22.1438 0.015466 0.083999 -3.020363
2011-07-07 07:02:19 51°18.17 2°58.983 22.1522 0.015466 0.084001 -3.020363
2011-07-07 07:02:24 51°18.183 2°59.004 22.1651 0.015466 0.083999 -3.020363
2011-07-07 07:02:30 51°18.198 2°59.03 22.1236 0.015466 0.084001 -3.020363
2011-07-07 07:02:34 51°18.208 2°59.047 22.137 0.015466 0.084001 -3.020363
2011-07-07 07:02:39 51°18.221 2°59.069 22.1397 0.015466 0.084001 -3.020363
2011-07-07 07:02:44 51°18.234 2°59.091 22.1072 0.015466 0.084002 -3.020363
2011-07-07 07:02:49 51°18.246 2°59.113 22.1429 0.015466 0.084002 -3.020363
2011-07-07 07:02:55 51°18.259 2°59.141 22.1204 0.015466 0.084002 -3.020363
2011-07-07 07:02:59 51°18.268 2°59.16 22.1484 0.015466 0.084003 -3.020363
2011-07-07 07:03:04 51°18.28 2°59.183 22.147 0.015466 0.084002 -3.020363
2011-07-07 07:03:10 51°18.293 2°59.211 22.1288 0.015466 0.084002 -3.020363
2011-07-07 07:03:15 51°18.304 2°59.235 22.1563 0.015466 0.084003 -3.020363
2011-07-07 07:03:19 51°18.312 2°59.254 22.1336 0.015466 0.084004 -3.020363
2011-07-07 07:03:24 51°18.323 2°59.278 22.1603 0.015466 0.084003 -3.020363
2011-07-07 07:03:29 51°18.333 2°59.302 22.1413 0.015466 0.084004 -3.020363
2011-07-07 07:03:35 51°18.347 2°59.33 22.1452 0.015466 0.084004 -3.020363
2011-07-07 07:03:39 51°18.355 2°59.349 22.1658 0.015466 0.084004 -3.020363
2011-07-07 07:03:44 51°18.366 2°59.373 22.1403 0.015466 0.084005 -3.020363
2011-07-07 07:03:50 51°18.379 2°59.401 22.1702 0.015466 0.084005 -3.020363
2011-07-07 07:03:55 51°18.39 2°59.425 22.1475 0.015466 0.084005 -3.020363
2011-07-07 07:03:59 51°18.399 2°59.443 22.1692 0.015466 0.084005 -3.020363
2011-07-07 07:04:04 51°18.41 2°59.467 22.1653 0.015466 0.084005 -3.020363
2011-07-07 07:04:09 51°18.421 2°59.49 22.1687 0.015466 0.084007 -3.020363
2011-07-07 07:04:15 51°18.435 2°59.517 22.1697 0.015466 0.084008 -3.020363
2011-07-07 07:04:19 51°18.445 2°59.535 22.1643 0.015466 0.084007 -3.020363
2011-07-07 07:04:24 51°18.457 2°59.557 22.1804 0.015466 0.084008 -3.020363
2011-07-07 07:04:29 51°18.469 2°59.579 22.1442 0.015466 0.084009 -3.020363
2011-07-07 07:04:34 51°18.482 2°59.6 22.1683 0.015466 0.084009 -3.020363
2011-07-07 07:04:39 51°18.494 2°59.622 22.1599 0.015466 0.084009 -3.020363
2011-07-07 07:04:44 51°18.507 2°59.643 22.1402 0.015466 0.08401 -3.020363
2011-07-07 07:04:50 51°18.523 2°59.668 22.1486 0.015466 0.08401 -3.020363
2011-07-07 07:04:55 51°18.535 2°59.69 22.1432 0.015466 0.08401 -3.020363
2011-07-07 07:04:59 51°18.545 2°59.707 22.1235 0.015466 0.08401 -3.020363
2011-07-07 07:05:04 51°18.558 2°59.729 22.1279 0.015466 0.08401 -3.020363
2011-07-07 07:05:09 51°18.57 2°59.751 22.144 0.015466 0.084012 -3.020363
2011-07-07 07:05:14 51°18.581 2°59.774 22.163 0.015466 0.084012 -3.020363
2011-07-07 07:05:19 51°18.592 2°59.798 22.1659 0.015466 0.08401 -3.020363
2011-07-07 07:05:24 51°18.604 2°59.821 22.1516 0.015466 0.084012 -3.020363
2011-07-07 07:05:30 51°18.617 2°59.849 22.1596 0.015466 0.084012 -3.020363
2011-07-07 07:05:34 51°18.626 2°59.868 22.1559 0.015466 0.084012 -3.020363
2011-07-07 07:05:39 51°18.637 2°59.892 22.1627 0.015466 0.084013 -3.020363
2011-07-07 07:05:44 51°18.648 2°59.916 22.1575 0.015466 0.084013 -3.020363
2011-07-07 07:05:50 51°18.661 2°59.945 22.1629 0.015466 0.084014 -3.020363
2011-07-07 07:05:55 51°18.672 2°59.969 22.1668 0.015466 0.084014 -3.020363
2011-07-07 07:05:59 51°18.681 2°59.988 22.1798 0.015466 0.084014 -3.020363
2011-07-07 07:06:04 51°18.691 3°0.012 22.1809 0.015466 0.084014 -3.020363
2011-07-07 07:06:09 51°18.703 3°0.036 22.2124 0.015466 0.084015 -3.020363
2011-07-07 07:06:14 51°18.714 3°0.059 22.2253 0.015466 0.084015 -3.020363
2011-07-07 07:06:19 51°18.727 3°0.079 22.2384 0.015466 0.084017 -3.020363
2011-07-07 07:06:24 51°18.741 3°0.097 22.2426 0.015466 0.084015 -3.020363
2011-07-07 07:06:29 51°18.756 3°0.111 22.2219 0.015466 0.084017 -3.020363
2011-07-07 07:06:34 51°18.773 3°0.123 22.2306 0.015466 0.084017 -3.020363
2011-07-07 07:06:39 51°18.789 3°0.131 22.2075 0.015466 0.084018 -3.020363
2011-07-07 07:06:43 51°18.803 3°0.135 22.219 0.015466 0.084018 -3.020363
2011-07-07 07:06:49 51°18.824 3°0.137 22.2341 0.015466 0.084019 -3.020363
2011-07-07 07:06:54 51°18.841 3°0.136 22.2227 0.015466 0.084019 -3.020363
2011-07-07 07:06:59 51°18.858 3°0.131 22.228 0.015466 0.084019 -3.020363
2011-07-07 07:07:04 51°18.874 3°0.124 22.2207 0.015466 0.084019 -3.020363
2011-07-07 07:07:10 51°18.892 3°0.111 22.245 0.015466 0.084019 -3.020363
2011-07-07 07:07:14 51°18.903 3°0.1 22.2261 0.015466 0.08402 -3.020363
2011-07-07 07:07:19 51°18.917 3°0.084 22.225 0.015466 0.084019 -3.020363
2011-07-07 07:07:24 51°18.928 3°0.065 22.2331 0.015466 0.084019 -3.020363
2011-07-07 07:07:29 51°18.938 3°0.045 22.2314 0.015466 0.08402 -3.020363
2011-07-07 07:07:35 51°18.948 3°0.019 22.2298 0.015466 0.08402 -3.020363
2011-07-07 07:07:39 51°18.952 3°0 22.2276 0.015466 0.084021 -3.020363
2011-07-07 07:07:44 51°18.957 2°59.976 22.232 0.015466 0.084021 -3.020363
2011-07-07 07:07:49 51°18.959 2°59.952 22.2327 0.015466 0.084021 -3.020363
2011-07-07 07:07:55 51°18.96 2°59.922 22.2362 0.015466 0.084021 -3.020363
2011-07-07 07:07:59 51°18.959 2°59.903 22.2169 0.015466 0.084021 -3.020363
2011-07-07 07:08:04 51°18.955 2°59.88 22.2281 0.015466 0.084021 -3.020363
2011-07-07 07:08:10 51°18.949 2°59.853 22.234 0.015466 0.084019 -3.020363
2011-07-07 07:08:14 51°18.943 2°59.837 22.2122 0.015466 0.08402 -3.020363
2011-07-07 07:08:19 51°18.935 2°59.817 22.1994 0.015466 0.084021 -3.020363
2011-07-07 07:08:24 51°18.925 2°59.8 22.1364 0.015466 0.084023 -3.020363
2011-07-07 07:08:29 51°18.914 2°59.783 22.1543 0.015466 0.084021 -3.020363
2011-07-07 07:08:35 51°18.901 2°59.763 22.1446 0.015466 0.084021 -3.020363
2011-07-07 07:08:39 51°18.892 2°59.749 22.1277 0.015466 0.084021 -3.020363
2011-07-07 07:08:43 51°18.883 2°59.735 22.1444 0.015466 0.084021 -3.020363
2011-07-07 07:08:49 51°18.87 2°59.712 22.1513 0.015466 0.084023 -3.020363
2011-07-07 07:08:54 51°18.86 2°59.692 22.1538 0.015466 0.084023 -3.020363
2011-07-07 07:08:59 51°18.85 2°59.672 22.17 0.015466 0.084023 -3.020363
2011-07-07 07:09:04 51°18.841 2°59.65 22.1701 0.015466 0.084023 -3.020363
2011-07-07 07:09:09 51°18.832 2°59.629 22.1807 0.015466 0.084023 -3.020363
2011-07-07 07:09:14 51°18.824 2°59.607 22.1878 0.015466 0.084024 -3.020363
2011-07-07 07:09:19 51°18.815 2°59.584 22.1736 0.015466 0.084025 -3.020363
2011-07-07 07:09:24 51°18.807 2°59.561 22.1837 0.015466 0.084025 -3.020363
2011-07-07 07:09:29 51°18.799 2°59.538 22.19 0.015466 0.084026 -3.020363
2011-07-07 07:09:34 51°18.792 2°59.515 22.1858 0.015466 0.084026 -3.020363
2011-07-07 07:09:39 51°18.784 2°59.492 22.1931 0.015466 0.084025 -3.020363
2011-07-07 07:09:44 51°18.776 2°59.469 22.1957 0.015466 0.084026 -3.020363
2011-07-07 07:09:49 51°18.768 2°59.446 22.1928 0.015466 0.084028 -3.020363
2011-07-07 07:09:55 51°18.759 2°59.418 22.185 0.015466 0.084029 -3.020363
2011-07-07 07:09:59 51°18.753 2°59.4 22.1949 0.015466 0.084029 -3.020363
2011-07-07 07:10:04 51°18.745 2°59.378 22.196 0.015466 0.084029 -3.020363
2011-07-07 07:10:10 51°18.735 2°59.351 22.1977 0.015466 0.084029 -3.020363
2011-07-07 07:10:14 51°18.728 2°59.333 22.2026 0.015466 0.084029 -3.020363
2011-07-07 07:10:19 51°18.719 2°59.311 22.1986 0.015466 0.08403 -3.020363
2011-07-07 07:10:23 51°18.712 2°59.294 22.2018 0.015466 0.08403 -3.020363
2011-07-07 07:10:30 51°18.699 2°59.264 22.1719 0.015466 0.08403 -3.020363
2011-07-07 07:10:34 51°18.691 2°59.248 22.2063 0.015466 0.08403 -3.020363
2011-07-07 07:10:39 51°18.682 2°59.227 22.1697 0.015466 0.08403 -3.020363
2011-07-07 07:10:44 51°18.672 2°59.206 22.1929 0.015466 0.084031 -3.020363
2011-07-07 07:10:49 51°18.663 2°59.185 22.1906 0.015466 0.084033 -3.020363
2011-07-07 07:10:55 51°18.651 2°59.161 22.1955 0.015466 0.084033 -3.020363
2011-07-07 07:10:59 51°18.643 2°59.144 22.1796 0.015466 0.084034 -3.020363
2011-07-07 07:11:04 51°18.634 2°59.123 22.1878 0.015466 0.084034 -3.020363
2011-07-07 07:11:10 51°18.623 2°59.098 22.2 0.015466 0.084033 -3.020363
2011-07-07 07:11:14 51°18.615 2°59.081 22.1894 0.015466 0.084034 -3.020363
2011-07-07 07:11:19 51°18.606 2°59.06 22.1908 0.015466 0.084035 -3.020363
2011-07-07 07:11:24 51°18.596 2°59.039 22.1964 0.015466 0.084035 -3.020363
2011-07-07 07:11:29 51°18.587 2°59.018 22.1925 0.015466 0.084035 -3.020363
2011-07-07 07:11:34 51°18.578 2°58.996 22.2061 0.015466 0.084035 -3.020363
2011-07-07 07:11:39 51°18.569 2°58.975 22.1863 0.015466 0.084036 -3.020363
2011-07-07 07:11:44 51°18.56 2°58.954 22.1836 0.015466 0.084036 -3.020363
2011-07-07 07:11:50 51°18.548 2°58.928 22.2021 0.015466 0.084036 -3.020363
2011-07-07 07:11:55 51°18.539 2°58.907 22.1981 0.015466 0.084038 -3.020363
2011-07-07 07:11:59 51°18.532 2°58.89 22.1716 0.015466 0.084038 -3.020363
2011-07-07 07:12:04 51°18.523 2°58.868 22.1891 0.015466 0.084038 -3.020363
2011-07-07 07:12:10 51°18.512 2°58.842 22.1942 0.015466 0.084038 -3.020363
2011-07-07 07:12:14 51°18.506 2°58.824 22.1971 0.015466 0.084039 -3.020363
2011-07-07 07:12:19 51°18.498 2°58.801 22.1918 0.015466 0.084039 -3.020363
2011-07-07 07:12:24 51°18.489 2°58.779 22.1891 0.015466 0.08404 -3.020363
2011-07-07 07:12:30 51°18.48 2°58.751 22.2015 0.015466 0.08404 -3.020363
2011-07-07 07:12:34 51°18.473 2°58.733 22.1885 0.015466 0.08404 -3.020363
2011-07-07 07:12:39 51°18.466 2°58.71 22.196 0.015466 0.08404 -3.020363
2011-07-07 07:12:44 51°18.458 2°58.686 22.1997 0.015466 0.084041 -3.020363
2011-07-07 07:12:50 51°18.449 2°58.659 22.2129 0.015466 0.084041 -3.020363
2011-07-07 07:12:55 51°18.442 2°58.635 22.2042 0.015466 0.084042 -3.020363
2011-07-07 07:12:59 51°18.436 2°58.617 22.1944 0.015466 0.084044 -3.020363
2011-07-07 07:13:04 51°18.428 2°58.595 22.2093 0.015466 0.084044 -3.020363
2011-07-07 07:13:09 51°18.42 2°58.572 22.2017 0.015466 0.084044 -3.020363
2011-07-07 07:13:14 51°18.412 2°58.549 22.2099 0.015466 0.084044 -3.020363
2011-07-07 07:13:19 51°18.403 2°58.527 22.2181 0.015466 0.084045 -3.020363
2011-07-07 07:13:24 51°18.395 2°58.505 22.2156 0.015466 0.084045 -3.020363
2011-07-07 07:13:29 51°18.386 2°58.483 22.2141 0.015466 0.084046 -3.020363
2011-07-07 07:13:34 51°18.376 2°58.462 22.1985 0.015466 0.084046 -3.020363
2011-07-07 07:13:39 51°18.367 2°58.441 22.2016 0.015466 0.084046 -3.020363
2011-07-07 07:13:43 51°18.359 2°58.424 22.212 0.015466 0.084046 -3.020363
2011-07-07 07:13:49 51°18.347 2°58.399 22.2099 0.015466 0.084047 -3.020363
2011-07-07 07:13:54 51°18.337 2°58.379 22.2061 0.015466 0.084047 -3.020363
2011-07-07 07:13:59 51°18.327 2°58.358 22.1971 0.015466 0.084047 -3.020363
2011-07-07 07:14:04 51°18.317 2°58.338 22.2084 0.015466 0.084049 -3.020363
2011-07-07 07:14:09 51°18.307 2°58.317 22.2139 0.015466 0.084049 -3.020363
2011-07-07 07:14:15 51°18.294 2°58.293 22.2147 0.015466 0.084049 -3.020363
2011-07-07 07:14:19 51°18.286 2°58.277 22.196 0.015466 0.084049 -3.020363
2011-07-07 07:14:24 51°18.276 2°58.257 22.2134 0.015466 0.08405 -3.020363
2011-07-07 07:14:30 51°18.264 2°58.232 22.192 0.015466 0.084051 -3.020363
2011-07-07 07:14:35 51°18.254 2°58.212 22.2152 0.015466 0.084051 -3.020363
2011-07-07 07:14:39 51°18.246 2°58.195 22.2094 0.015466 0.08405 -3.020363
2011-07-07 07:14:44 51°18.237 2°58.174 22.2045 0.015466 0.084051 -3.020363
2011-07-07 07:14:49 51°18.227 2°58.153 22.1939 0.015466 0.084051 -3.020363
2011-07-07 07:14:55 51°18.216 2°58.128 22.2065 0.015466 0.084052 -3.020363
2011-07-07 07:14:59 51°18.209 2°58.11 22.2096 0.015466 0.084052 -3.020363
2011-07-07 07:15:04 51°18.2 2°58.089 22.215 0.015466 0.084052 -3.020363
2011-07-07 07:15:10 51°18.19 2°58.062 22.2185 0.015466 0.084052 -3.020363
2011-07-07 07:15:15 51°18.181 2°58.041 22.2227 0.015466 0.084054 -3.020363
2011-07-07 07:15:19 51°18.174 2°58.023 22.2185 0.015466 0.084055 -3.020363
2011-07-07 07:15:24 51°18.166 2°58.001 22.2165 0.015466 0.084055 -3.020363
2011-07-07 07:15:29 51°18.157 2°57.978 22.2283 0.015466 0.084056 -3.020363
2011-07-07 07:15:34 51°18.149 2°57.955 22.2306 0.015466 0.084056 -3.020363
2011-07-07 07:15:39 51°18.14 2°57.933 22.2285 0.015466 0.084056 -3.020363
2011-07-07 07:15:43 51°18.134 2°57.915 22.2245 0.015466 0.084056 -3.020363
2011-07-07 07:15:49 51°18.123 2°57.888 22.2256 0.015466 0.084057 -3.020363
2011-07-07 07:15:54 51°18.114 2°57.867 22.2349 0.015466 0.084057 -3.020363
2011-07-07 07:15:59 51°18.105 2°57.845 22.2281 0.015466 0.084057 -3.020363
2011-07-07 07:16:04 51°18.096 2°57.824 22.2337 0.015466 0.084057 -3.020363
2011-07-07 07:16:10 51°18.084 2°57.799 22.2262 0.015466 0.084058 -3.020363
2011-07-07 07:16:15 51°18.075 2°57.779 22.2175 0.015466 0.084058 -3.020363
2011-07-07 07:16:19 51°18.066 2°57.762 22.2337 0.015466 0.084058 -3.020363
2011-07-07 07:16:24 51°18.057 2°57.742 22.2379 0.015466 0.08406 -3.020363
2011-07-07 07:16:29 51°18.046 2°57.722 22.2209 0.015466 0.08406 -3.020363
2011-07-07 07:16:35 51°18.034 2°57.698 22.2258 0.015466 0.08406 -3.020363
2011-07-07 07:16:39 51°18.026 2°57.682 22.2264 0.015466 0.08406 -3.020363
2011-07-07 07:16:44 51°18.016 2°57.662 22.2245 0.015466 0.084061 -3.020363
2011-07-07 07:16:50 51°18.004 2°57.637 22.2252 0.015466 0.084061 -3.020363
2011-07-07 07:16:54 51°17.996 2°57.621 22.2282 0.015466 0.084062 -3.020363
2011-07-07 07:16:59 51°17.986 2°57.6 22.2266 0.015466 0.084062 -3.020363
2011-07-07 07:17:03 51°17.979 2°57.584 22.2274 0.015466 0.084062 -3.020363
2011-07-07 07:17:10 51°17.966 2°57.554 22.2293 0.015466 0.084062 -3.020363
2011-07-07 07:17:14 51°17.959 2°57.536 22.228 0.015466 0.084062 -3.020363
2011-07-07 07:17:19 51°17.95 2°57.515 22.2282 0.015466 0.084063 -3.020363
2011-07-07 07:17:24 51°17.942 2°57.492 22.2315 0.015466 0.084065 -3.020363
2011-07-07 07:17:29 51°17.933 2°57.47 22.249 0.015466 0.084065 -3.020363
2011-07-07 07:17:35 51°17.923 2°57.443 22.2355 0.015466 0.084065 -3.020363
2011-07-07 07:17:39 51°17.916 2°57.426 22.2433 0.015466 0.084065 -3.020363
2011-07-07 07:17:44 51°17.908 2°57.403 22.2246 0.015466 0.084066 -3.020363
2011-07-07 07:17:50 51°17.897 2°57.377 22.2413 0.015466 0.084066 -3.020363
2011-07-07 07:17:54 51°17.89 2°57.359 22.2274 0.015466 0.084066 -3.020363
2011-07-07 07:17:59 51°17.882 2°57.337 22.2443 0.015466 0.084067 -3.020363
2011-07-07 07:18:04 51°17.873 2°57.314 22.2449 0.015466 0.084067 -3.020363
2011-07-07 07:18:09 51°17.864 2°57.292 22.251 0.015466 0.084067 -3.020363
2011-07-07 07:18:14 51°17.855 2°57.271 22.2467 0.015466 0.084068 -3.020363
2011-07-07 07:18:19 51°17.845 2°57.249 22.2492 0.015466 0.084068 -3.020363
2011-07-07 07:18:24 51°17.835 2°57.228 22.2364 0.015466 0.084068 -3.020363
2011-07-07 07:18:30 51°17.823 2°57.204 22.2532 0.015466 0.08407 -3.020363
2011-07-07 07:18:35 51°17.813 2°57.183 22.2393 0.015466 0.08407 -3.020363
2011-07-07 07:18:39 51°17.805 2°57.167 22.2317 0.015466 0.08407 -3.020363
2011-07-07 07:18:44 51°17.795 2°57.146 22.2286 0.015466 0.08407 -3.020363
2011-07-07 07:18:50 51°17.782 2°57.122 22.2487 0.015466 0.084071 -3.020363
2011-07-07 07:18:54 51°17.774 2°57.105 22.2347 0.015466 0.084071 -3.020363
2011-07-07 07:18:59 51°17.764 2°57.084 22.2439 0.015466 0.084072 -3.020363
2011-07-07 07:19:04 51°17.754 2°57.063 22.2294 0.015466 0.084072 -3.020363
2011-07-07 07:19:10 51°17.743 2°57.037 22.2497 0.015466 0.084072 -3.020363
2011-07-07 07:19:14 51°17.736 2°57.019 22.2456 0.015466 0.084073 -3.020363
2011-07-07 07:19:19 51°17.727 2°56.997 22.254 0.015466 0.084073 -3.020363
2011-07-07 07:19:24 51°17.718 2°56.975 22.2493 0.015466 0.084073 -3.020363
2011-07-07 07:19:30 51°17.706 2°56.949 22.2593 0.015466 0.084075 -3.020363
2011-07-07 07:19:35 51°17.697 2°56.927 22.2572 0.015466 0.084075 -3.020363
2011-07-07 07:19:39 51°17.689 2°56.91 22.26 0.015466 0.084076 -3.020363
2011-07-07 07:19:44 51°17.679 2°56.889 22.2564 0.015466 0.084076 -3.020363
2011-07-07 07:19:49 51°17.668 2°56.869 22.2534 0.015466 0.084077 -3.020363
2011-07-07 07:19:55 51°17.655 2°56.845 22.2411 0.015466 0.084077 -3.020363
2011-07-07 07:19:59 51°17.647 2°56.829 22.2608 0.015466 0.084078 -3.020363
2011-07-07 07:20:04 51°17.636 2°56.808 22.251 0.015466 0.084078 -3.020363
2011-07-07 07:20:09 51°17.625 2°56.789 22.2473 0.015466 0.084077 -3.020363
2011-07-07 07:20:14 51°17.614 2°56.769 22.2575 0.015466 0.084078 -3.020363
2011-07-07 07:20:19 51°17.602 2°56.75 22.2585 0.015466 0.084078 -3.020363
2011-07-07 07:20:23 51°17.594 2°56.734 22.2528 0.015466 0.084079 -3.020363
2011-07-07 07:20:29 51°17.58 2°56.71 22.2408 0.015466 0.084078 -3.020363
2011-07-07 07:20:34 51°17.57 2°56.69 22.2541 0.015466 0.084078 -3.020363
2011-07-07 07:20:39 51°17.559 2°56.67 22.2408 0.015466 0.084079 -3.020363
2011-07-07 07:20:44 51°17.549 2°56.649 22.254 0.015466 0.084079 -3.020363
2011-07-07 07:20:49 51°17.538 2°56.628 22.2616 0.015466 0.084081 -3.020363
2011-07-07 07:20:55 51°17.526 2°56.603 22.2512 0.015466 0.084082 -3.020363
2011-07-07 07:20:59 51°17.518 2°56.586 22.2635 0.015466 0.084082 -3.020363
2011-07-07 07:21:04 51°17.508 2°56.565 22.2551 0.015466 0.084082 -3.020363
2011-07-07 07:21:10 51°17.497 2°56.539 22.2636 0.015466 0.084082 -3.020363
2011-07-07 07:21:15 51°17.487 2°56.517 22.2639 0.015466 0.084083 -3.020363
2011-07-07 07:21:19 51°17.48 2°56.499 22.2667 0.015466 0.084084 -3.020363
2011-07-07 07:21:24 51°17.471 2°56.477 22.2629 0.015466 0.084084 -3.020363
2011-07-07 07:21:29 51°17.462 2°56.456 22.2644 0.015466 0.084086 -3.020363
2011-07-07 07:21:35 51°17.451 2°56.429 22.273 0.015466 0.084086 -3.020363
2011-07-07 07:21:39 51°17.443 2°56.412 22.2719 0.015466 0.084086 -3.020363
2011-07-07 07:21:44 51°17.433 2°56.39 22.2772 0.015466 0.084087 -3.020363
2011-07-07 07:21:50 51°17.422 2°56.364 22.2717 0.015466 0.084087 -3.020363
2011-07-07 07:21:55 51°17.412 2°56.343 22.2775 0.015466 0.084087 -3.020363
2011-07-07 07:21:59 51°17.404 2°56.327 22.2706 0.015466 0.084088 -3.020363
2011-07-07 07:22:04 51°17.393 2°56.306 22.2758 0.015466 0.084088 -3.020363
2011-07-07 07:22:09 51°17.383 2°56.286 22.2543 0.015466 0.084088 -3.020363
2011-07-07 07:22:15 51°17.37 2°56.262 22.27 0.015466 0.084088 -3.020363
2011-07-07 07:22:19 51°17.361 2°56.246 22.2831 0.015466 0.084089 -3.020363
2011-07-07 07:22:24 51°17.35 2°56.226 22.2694 0.015466 0.084091 -3.020363
2011-07-07 07:22:29 51°17.339 2°56.206 22.2696 0.015466 0.084091 -3.020363
2011-07-07 07:22:34 51°17.328 2°56.186 22.271 0.015466 0.084091 -3.020363
2011-07-07 07:22:39 51°17.317 2°56.166 22.2536 0.015466 0.084091 -3.020363
2011-07-07 07:22:44 51°17.307 2°56.145 22.2681 0.015466 0.084092 -3.020363
2011-07-07 07:22:50 51°17.294 2°56.12 22.2682 0.015466 0.084092 -3.020363
2011-07-07 07:22:55 51°17.284 2°56.098 22.2747 0.015466 0.084092 -3.020363
2011-07-07 07:22:59 51°17.276 2°56.081 22.2689 0.015466 0.084093 -3.020363
2011-07-07 07:23:04 51°17.267 2°56.059 22.2815 0.015466 0.084093 -3.020363
2011-07-07 07:23:09 51°17.257 2°56.037 22.2805 0.015466 0.084093 -3.020363
2011-07-07 07:23:15 51°17.246 2°56.01 22.2847 0.015466 0.084093 -3.020363
2011-07-07 07:23:19 51°17.238 2°55.992 22.272 0.015466 0.084094 -3.020363
2011-07-07 07:23:24 51°17.229 2°55.97 22.2735 0.015466 0.084096 -3.020363
2011-07-07 07:23:30 51°17.217 2°55.943 22.2907 0.015466 0.084096 -3.020363
2011-07-07 07:23:34 51°17.21 2°55.925 22.2765 0.015466 0.084096 -3.020363
2011-07-07 07:23:39 51°17.201 2°55.903 22.2908 0.015466 0.084097 -3.020363
2011-07-07 07:23:43 51°17.193 2°55.885 22.2946 0.015466 0.084098 -3.020363
2011-07-07 07:23:50 51°17.179 2°55.855 22.2952 0.015466 0.084098 -3.020363
2011-07-07 07:23:54 51°17.171 2°55.837 22.2772 0.015466 0.084099 -3.020363
2011-07-07 07:23:59 51°17.161 2°55.816 22.2854 0.015466 0.084099 -3.020363
2011-07-07 07:24:04 51°17.15 2°55.795 22.2915 0.015466 0.084099 -3.020363
2011-07-07 07:24:09 51°17.139 2°55.775 22.2847 0.015466 0.084099 -3.020363
2011-07-07 07:24:15 51°17.126 2°55.751 22.2923 0.015466 0.084099 -3.020363
2011-07-07 07:24:19 51°17.117 2°55.734 22.2771 0.015466 0.0841 -3.020363
2011-07-07 07:24:24 51°17.106 2°55.714 22.284 0.015466 0.0841 -3.020363
2011-07-07 07:24:30 51°17.092 2°55.69 22.2958 0.015466 0.084102 -3.020363
2011-07-07 07:24:35 51°17.081 2°55.67 22.2691 0.015466 0.084102 -3.020363
2011-07-07 07:24:39 51°17.072 2°55.654 22.2876 0.015466 0.084102 -3.020363
2011-07-07 07:24:44 51°17.06 2°55.633 22.2737 0.015466 0.084102 -3.020363
2011-07-07 07:24:49 51°17.049 2°55.613 22.2893 0.015466 0.084103 -3.020363
2011-07-07 07:24:54 51°17.039 2°55.591 22.2889 0.015466 0.084104 -3.020363
2011-07-07 07:24:59 51°17.028 2°55.57 22.2896 0.015466 0.084103 -3.020363
2011-07-07 07:25:04 51°17.018 2°55.548 22.2954 0.015466 0.084103 -3.020363
2011-07-07 07:25:10 51°17.006 2°55.521 22.295 0.015466 0.084104 -3.020363
2011-07-07 07:25:15 51°16.996 2°55.499 22.3043 0.015466 0.084104 -3.020363
2011-07-07 07:25:19 51°16.989 2°55.481 22.2946 0.015466 0.084105 -3.020363
2011-07-07 07:25:24 51°16.979 2°55.459 22.2999 0.015466 0.084105 -3.020363
2011-07-07 07:25:30 51°16.968 2°55.432 22.3037 0.015466 0.084107 -3.020363
2011-07-07 07:25:34 51°16.96 2°55.414 22.3022 0.015466 0.084107 -3.020363
2011-07-07 07:25:39 51°16.95 2°55.391 22.3 0.015466 0.084107 -3.020363
2011-07-07 07:25:45 51°16.939 2°55.364 22.3022 0.015466 0.084107 -3.020363
2011-07-07 07:25:50 51°16.93 2°55.342 22.3082 0.015466 0.084108 -3.020363
2011-07-07 07:25:54 51°16.922 2°55.324 22.296 0.015466 0.084109 -3.020363
2011-07-07 07:25:59 51°16.912 2°55.303 22.2946 0.015466 0.084109 -3.020363
2011-07-07 07:26:04 51°16.902 2°55.282 22.3049 0.015466 0.084109 -3.020363
2011-07-07 07:26:10 51°16.889 2°55.257 22.3122 0.015466 0.084109 -3.020363
2011-07-07 07:26:15 51°16.878 2°55.236 22.2973 0.015466 0.08411 -3.020363
2011-07-07 07:26:19 51°16.87 2°55.22 22.3097 0.015466 0.08411 -3.020363
2011-07-07 07:26:24 51°16.859 2°55.199 22.303 0.015466 0.084112 -3.020363
2011-07-07 07:26:29 51°16.848 2°55.179 22.2992 0.015466 0.084112 -3.020363
2011-07-07 07:26:35 51°16.834 2°55.155 22.3008 0.015466 0.084112 -3.020363
2011-07-07 07:26:39 51°16.825 2°55.139 22.3056 0.015466 0.084112 -3.020363
2011-07-07 07:26:44 51°16.814 2°55.119 22.3066 0.015466 0.084113 -3.020363
2011-07-07 07:26:49 51°16.803 2°55.098 22.3088 0.015466 0.084113 -3.020363
2011-07-07 07:26:55 51°16.791 2°55.074 22.3068 0.015466 0.084114 -3.020363
2011-07-07 07:26:59 51°16.782 2°55.057 22.2942 0.015466 0.084114 -3.020363
2011-07-07 07:27:03 51°16.774 2°55.04 22.297 0.015466 0.084114 -3.020363
2011-07-07 07:27:09 51°16.761 2°55.014 22.3106 0.015466 0.084115 -3.020363
2011-07-07 07:27:14 51°16.751 2°54.992 22.3099 0.015466 0.084115 -3.020363
2011-07-07 07:27:19 51°16.741 2°54.97 22.308 0.015466 0.084117 -3.020363
2011-07-07 07:27:24 51°16.732 2°54.948 22.3101 0.015466 0.084117 -3.020363
2011-07-07 07:27:29 51°16.722 2°54.925 22.3207 0.015466 0.084117 -3.020363
2011-07-07 07:27:35 51°16.711 2°54.898 22.3166 0.015466 0.084117 -3.020363
2011-07-07 07:27:39 51°16.703 2°54.88 22.318 0.015466 0.084118 -3.020363
2011-07-07 07:27:44 51°16.693 2°54.858 22.3163 0.015466 0.084118 -3.020363
2011-07-07 07:27:50 51°16.682 2°54.831 22.3186 0.015466 0.084119 -3.020363
2011-07-07 07:27:55 51°16.672 2°54.809 22.3276 0.015466 0.084119 -3.020363
2011-07-07 07:27:59 51°16.664 2°54.791 22.3303 0.015466 0.084119 -3.020363
2011-07-07 07:28:04 51°16.654 2°54.77 22.3113 0.015466 0.08412 -3.020363
2011-07-07 07:28:09 51°16.643 2°54.749 22.3225 0.015466 0.08412 -3.020363
2011-07-07 07:28:15 51°16.63 2°54.724 22.3117 0.015466 0.08412 -3.020363
2011-07-07 07:28:19 51°16.621 2°54.708 22.3303 0.015466 0.084121 -3.020363
2011-07-07 07:28:24 51°16.611 2°54.687 22.3109 0.015466 0.084121 -3.020363
2011-07-07 07:28:30 51°16.597 2°54.663 22.323 0.015466 0.084123 -3.020363
2011-07-07 07:28:35 51°16.586 2°54.642 22.3208 0.015466 0.084121 -3.020363
2011-07-07 07:28:39 51°16.577 2°54.626 22.3303 0.015466 0.084121 -3.020363
2011-07-07 07:28:44 51°16.566 2°54.605 22.3262 0.015466 0.084123 -3.020363
2011-07-07 07:28:49 51°16.555 2°54.585 22.3249 0.015466 0.084124 -3.020363
2011-07-07 07:28:55 51°16.542 2°54.56 22.3235 0.015466 0.084124 -3.020363
2011-07-07 07:28:59 51°16.533 2°54.544 22.3337 0.015466 0.084124 -3.020363
2011-07-07 07:29:04 51°16.522 2°54.523 22.3262 0.015466 0.084124 -3.020363
2011-07-07 07:29:09 51°16.511 2°54.503 22.3277 0.015466 0.084125 -3.020363
2011-07-07 07:29:14 51°16.5 2°54.482 22.3286 0.015466 0.084125 -3.020363
2011-07-07 07:29:19 51°16.489 2°54.461 22.3223 0.015466 0.084126 -3.020363
2011-07-07 07:29:24 51°16.478 2°54.441 22.3068 0.015466 0.084126 -3.020363
2011-07-07 07:29:30 51°16.465 2°54.415 22.3183 0.015466 0.084126 -3.020363
2011-07-07 07:29:35 51°16.455 2°54.394 22.3134 0.015466 0.084126 -3.020363
2011-07-07 07:29:39 51°16.447 2°54.376 22.3333 0.015466 0.084128 -3.020363
2011-07-07 07:29:44 51°16.437 2°54.354 22.3267 0.015466 0.084128 -3.020363
2011-07-07 07:29:49 51°16.428 2°54.332 22.3363 0.015466 0.084129 -3.020363
2011-07-07 07:29:55 51°16.416 2°54.305 22.344 0.015466 0.084129 -3.020363
2011-07-07 07:29:59 51°16.409 2°54.287 22.3351 0.015466 0.08413 -3.020363
2011-07-07 07:30:04 51°16.399 2°54.265 22.3469 0.015466 0.08413 -3.020363
2011-07-07 07:30:10 51°16.387 2°54.238 22.3419 0.015466 0.08413 -3.020363
2011-07-07 07:30:14 51°16.379 2°54.221 22.3438 0.015466 0.084131 -3.020363
2011-07-07 07:30:19 51°16.368 2°54.199 22.346 0.015466 0.084131 -3.020363
2011-07-07 07:30:23 51°16.36 2°54.183 22.3401 0.015466 0.084133 -3.020363
2011-07-07 07:30:30 51°16.345 2°54.153 22.3419 0.015466 0.084133 -3.020363
2011-07-07 07:30:34 51°16.337 2°54.136 22.3346 0.015466 0.084133 -3.020363
2011-07-07 07:30:39 51°16.326 2°54.116 22.3479 0.015466 0.084133 -3.020363
2011-07-07 07:30:44 51°16.315 2°54.095 22.3315 0.015466 0.084134 -3.020363
2011-07-07 07:30:49 51°16.304 2°54.075 22.3433 0.015466 0.084134 -3.020363
2011-07-07 07:30:55 51°16.29 2°54.05 22.3415 0.015466 0.084135 -3.020363
2011-07-07 07:30:59 51°16.281 2°54.034 22.3298 0.015466 0.084135 -3.020363
2011-07-07 07:31:04 51°16.271 2°54.013 22.334 0.015466 0.084135 -3.020363
2011-07-07 07:31:10 51°16.258 2°53.988 22.3291 0.015466 0.084135 -3.020363
2011-07-07 07:31:15 51°16.247 2°53.967 22.3445 0.015466 0.084136 -3.020363
2011-07-07 07:31:19 51°16.239 2°53.95 22.3458 0.015466 0.084136 -3.020363
2011-07-07 07:31:24 51°16.229 2°53.928 22.3445 0.015466 0.084138 -3.020363
2011-07-07 07:31:29 51°16.219 2°53.906 22.3476 0.015466 0.084138 -3.020363
2011-07-07 07:31:34 51°16.209 2°53.884 22.3378 0.015466 0.084138 -3.020363
2011-07-07 07:31:39 51°16.199 2°53.861 22.3509 0.015466 0.084139 -3.020363
2011-07-07 07:31:44 51°16.19 2°53.839 22.3524 0.015466 0.084139 -3.020363
2011-07-07 07:31:50 51°16.178 2°53.811 22.3527 0.015466 0.08414 -3.020363
2011-07-07 07:31:55 51°16.169 2°53.789 22.3593 0.015466 0.08414 -3.020363
2011-07-07 07:31:59 51°16.161 2°53.771 22.3592 0.015466 0.084141 -3.020363
2011-07-07 07:32:04 51°16.152 2°53.749 22.3554 0.015466 0.084141 -3.020363
2011-07-07 07:32:10 51°16.139 2°53.723 22.3628 0.015466 0.084141 -3.020363
2011-07-07 07:32:14 51°16.131 2°53.705 22.3603 0.015466 0.084143 -3.020363
2011-07-07 07:32:19 51°16.121 2°53.684 22.3552 0.015466 0.084143 -3.020363
2011-07-07 07:32:24 51°16.11 2°53.663 22.3608 0.015466 0.084144 -3.020363
2011-07-07 07:32:30 51°16.097 2°53.638 22.3618 0.015466 0.084144 -3.020363
2011-07-07 07:32:34 51°16.088 2°53.621 22.3539 0.015466 0.084144 -3.020363
2011-07-07 07:32:39 51°16.077 2°53.6 22.3646 0.015466 0.084144 -3.020363
2011-07-07 07:32:44 51°16.066 2°53.579 22.3575 0.015466 0.084145 -3.020363
2011-07-07 07:32:50 51°16.053 2°53.554 22.3685 0.015466 0.084145 -3.020363
2011-07-07 07:32:55 51°16.042 2°53.534 22.3593 0.015466 0.084146 -3.020363
2011-07-07 07:32:59 51°16.033 2°53.517 22.3655 0.015466 0.084146 -3.020363
2011-07-07 07:33:04 51°16.023 2°53.496 22.3621 0.015466 0.084146 -3.020363
2011-07-07 07:33:09 51°16.012 2°53.475 22.3619 0.015466 0.084147 -3.020363
2011-07-07 07:33:15 51°15.999 2°53.449 22.3581 0.015466 0.084147 -3.020363
2011-07-07 07:33:19 51°15.991 2°53.432 22.3597 0.015466 0.084147 -3.020363
2011-07-07 07:33:24 51°15.981 2°53.41 22.3632 0.015466 0.084149 -3.020363
2011-07-07 07:33:29 51°15.971 2°53.387 22.3618 0.015466 0.084149 -3.020363
2011-07-07 07:33:34 51°15.961 2°53.365 22.3676 0.015466 0.084149 -3.020363
2011-07-07 07:33:39 51°15.951 2°53.342 22.3678 0.015466 0.08415 -3.020363
2011-07-07 07:33:43 51°15.943 2°53.324 22.3734 0.015466 0.08415 -3.020363
2011-07-07 07:33:49 51°15.932 2°53.297 22.3756 0.015466 0.084151 -3.020363
2011-07-07 07:33:54 51°15.922 2°53.275 22.3671 0.015466 0.084151 -3.020363
2011-07-07 07:33:59 51°15.912 2°53.252 22.3626 0.015466 0.084152 -3.020363
2011-07-07 07:34:04 51°15.902 2°53.23 22.3827 0.015466 0.084152 -3.020363
2011-07-07 07:34:09 51°15.892 2°53.208 22.3704 0.015466 0.084152 -3.020363
2011-07-07 07:34:15 51°15.88 2°53.182 22.3749 0.015466 0.084154 -3.020363
2011-07-07 07:34:19 51°15.872 2°53.164 22.3749 0.015466 0.084154 -3.020363
2011-07-07 07:34:24 51°15.862 2°53.142 22.3845 0.015466 0.084155 -3.020363
2011-07-07 07:34:30 51°15.85 2°53.115 22.3831 0.015466 0.084155 -3.020363
2011-07-07 07:34:35 51°15.84 2°53.093 22.3879 0.015466 0.084155 -3.020363
2011-07-07 07:34:39 51°15.832 2°53.076 22.3841 0.015466 0.084155 -3.020363
2011-07-07 07:34:44 51°15.821 2°53.055 22.3739 0.015466 0.084156 -3.020363
2011-07-07 07:34:49 51°15.81 2°53.034 22.3778 0.015466 0.084156 -3.020363
2011-07-07 07:34:55 51°15.797 2°53.008 22.3755 0.015466 0.084157 -3.020363
2011-07-07 07:34:59 51°15.788 2°52.992 22.3732 0.015466 0.084156 -3.020363
2011-07-07 07:35:04 51°15.777 2°52.971 22.379 0.015466 0.084156 -3.020363
2011-07-07 07:35:10 51°15.764 2°52.946 22.3738 0.015466 0.084157 -3.020363
2011-07-07 07:35:15 51°15.752 2°52.925 22.3783 0.015466 0.084159 -3.020363
2011-07-07 07:35:19 51°15.743 2°52.908 22.3816 0.015466 0.084159 -3.020363
2011-07-07 07:35:24 51°15.732 2°52.887 22.3875 0.015466 0.08416 -3.020363
2011-07-07 07:35:29 51°15.721 2°52.866 22.3894 0.015466 0.08416 -3.020363
2011-07-07 07:35:35 51°15.708 2°52.841 22.3849 0.015466 0.084161 -3.020363
2011-07-07 07:35:39 51°15.699 2°52.824 22.3739 0.015466 0.084161 -3.020363
2011-07-07 07:35:43 51°15.69 2°52.807 22.3697 0.015466 0.084161 -3.020363
2011-07-07 07:35:49 51°15.678 2°52.781 22.3719 0.015466 0.084161 -3.020363
2011-07-07 07:35:54 51°15.667 2°52.76 22.3818 0.015466 0.084162 -3.020363
2011-07-07 07:35:59 51°15.657 2°52.738 22.3805 0.015466 0.084161 -3.020363
2011-07-07 07:36:04 51°15.647 2°52.715 22.3826 0.015466 0.084161 -3.020363
2011-07-07 07:36:10 51°15.635 2°52.688 22.3776 0.015466 0.084162 -3.020363
2011-07-07 07:36:15 51°15.626 2°52.665 22.3868 0.015466 0.084162 -3.020363
2011-07-07 07:36:19 51°15.619 2°52.646 22.3928 0.015466 0.084164 -3.020363
2011-07-07 07:36:24 51°15.61 2°52.622 22.3972 0.015466 0.084165 -3.020363
2011-07-07 07:36:29 51°15.601 2°52.598 22.4011 0.015466 0.084165 -3.020363
2011-07-07 07:36:35 51°15.591 2°52.569 22.4049 0.015466 0.084165 -3.020363
2011-07-07 07:36:39 51°15.584 2°52.55 22.402 0.015466 0.084166 -3.020363
2011-07-07 07:36:44 51°15.576 2°52.527 22.4018 0.015466 0.084166 -3.020363
2011-07-07 07:36:50 51°15.565 2°52.498 22.4093 0.015466 0.084166 -3.020363
2011-07-07 07:36:54 51°15.558 2°52.48 22.403 0.015466 0.084167 -3.020363
2011-07-07 07:36:59 51°15.549 2°52.457 22.4025 0.015466 0.084167 -3.020363
2011-07-07 07:37:05 51°15.537 2°52.429 22.4014 0.015466 0.084167 -3.020363
2011-07-07 07:37:10 51°15.528 2°52.406 22.4044 0.015466 0.084167 -3.020363
2011-07-07 07:37:14 51°15.52 2°52.388 22.4054 0.015466 0.084169 -3.020363
2011-07-07 07:37:19 51°15.51 2°52.366 22.4039 0.015466 0.084169 -3.020363
2011-07-07 07:37:24 51°15.5 2°52.343 22.3984 0.015466 0.08417 -3.020363
2011-07-07 07:37:29 51°15.491 2°52.32 22.4005 0.015466 0.08417 -3.020363
2011-07-07 07:37:35 51°15.479 2°52.293 22.3975 0.015466 0.08417 -3.020363
2011-07-07 07:37:39 51°15.471 2°52.275 22.3925 0.015466 0.084171 -3.020363
2011-07-07 07:37:43 51°15.464 2°52.257 22.4085 0.015466 0.084171 -3.020363
2011-07-07 07:37:49 51°15.453 2°52.229 22.4003 0.015466 0.084171 -3.020363
2011-07-07 07:37:54 51°15.443 2°52.206 22.4017 0.015466 0.084172 -3.020363
2011-07-07 07:37:59 51°15.434 2°52.183 22.3915 0.015466 0.084172 -3.020363
2011-07-07 07:38:04 51°15.425 2°52.16 22.41 0.015466 0.084172 -3.020363
2011-07-07 07:38:09 51°15.416 2°52.136 22.4006 0.015466 0.084172 -3.020363
2011-07-07 07:38:14 51°15.408 2°52.112 22.4102 0.015466 0.084173 -3.020363
2011-07-07 07:38:19 51°15.399 2°52.088 22.4181 0.015466 0.084173 -3.020363
2011-07-07 07:38:24 51°15.391 2°52.064 22.4099 0.015466 0.084173 -3.020363
2011-07-07 07:38:30 51°15.381 2°52.034 22.4111 0.015466 0.084175 -3.020363
2011-07-07 07:38:35 51°15.374 2°52.01 22.4276 0.015466 0.084175 -3.020363
2011-07-07 07:38:39 51°15.367 2°51.99 22.4214 0.015466 0.084175 -3.020363
2011-07-07 07:38:44 51°15.359 2°51.966 22.4055 0.015466 0.084176 -3.020363
2011-07-07 07:38:50 51°15.349 2°51.937 22.4301 0.015466 0.084176 -3.020363
2011-07-07 07:38:54 51°15.343 2°51.917 22.4049 0.015466 0.084176 -3.020363
2011-07-07 07:38:59 51°15.334 2°51.893 22.4287 0.015466 0.084177 -3.020363
2011-07-07 07:39:05 51°15.324 2°51.864 22.4128 0.015466 0.084177 -3.020363
2011-07-07 07:39:10 51°15.315 2°51.841 22.4309 0.015466 0.084177 -3.020363
2011-07-07 07:39:14 51°15.308 2°51.822 22.4157 0.015466 0.084178 -3.020363
2011-07-07 07:39:19 51°15.299 2°51.798 22.4336 0.015466 0.084178 -3.020363
2011-07-07 07:39:24 51°15.289 2°51.775 22.4174 0.015466 0.08418 -3.020363
2011-07-07 07:39:30 51°15.278 2°51.747 22.4206 0.015466 0.084178 -3.020363
2011-07-07 07:39:35 51°15.269 2°51.725 22.4191 0.015466 0.084178 -3.020363
2011-07-07 07:39:39 51°15.261 2°51.706 22.4243 0.015466 0.08418 -3.020363
2011-07-07 07:39:44 51°15.251 2°51.684 22.4235 0.015466 0.08418 -3.020363
2011-07-07 07:39:49 51°15.241 2°51.661 22.4254 0.015466 0.08418 -3.020363
2011-07-07 07:39:55 51°15.229 2°51.634 22.4265 0.015466 0.084181 -3.020363
2011-07-07 07:39:59 51°15.222 2°51.616 22.4276 0.015466 0.084181 -3.020363
2011-07-07 07:40:04 51°15.212 2°51.593 22.4305 0.015466 0.084181 -3.020363
2011-07-07 07:40:09 51°15.202 2°51.57 22.4268 0.015466 0.084182 -3.020363
2011-07-07 07:40:15 51°15.191 2°51.542 22.4301 0.015466 0.084182 -3.020363
2011-07-07 07:40:19 51°15.183 2°51.524 22.4354 0.015466 0.084182 -3.020363
2011-07-07 07:40:23 51°15.176 2°51.505 22.4382 0.015466 0.084183 -3.020363
2011-07-07 07:40:29 51°15.164 2°51.477 22.4401 0.015466 0.084183 -3.020363
2011-07-07 07:40:35 51°15.153 2°51.449 22.4276 0.015466 0.084183 -3.020363
2011-07-07 07:40:39 51°15.146 2°51.431 22.4358 0.015466 0.084183 -3.020363
2011-07-07 07:40:44 51°15.136 2°51.408 22.431 0.015466 0.084185 -3.020363
2011-07-07 07:40:49 51°15.127 2°51.384 22.4487 0.015466 0.084185 -3.020363
2011-07-07 07:40:55 51°15.116 2°51.356 22.4401 0.015466 0.084186 -3.020363
2011-07-07 07:40:59 51°15.108 2°51.338 22.4428 0.015466 0.084186 -3.020363
2011-07-07 07:41:04 51°15.099 2°51.315 22.4353 0.015466 0.084186 -3.020363
2011-07-07 07:41:10 51°15.087 2°51.288 22.4513 0.015466 0.084186 -3.020363
2011-07-07 07:41:14 51°15.079 2°51.269 22.4306 0.015466 0.084186 -3.020363
2011-07-07 07:41:19 51°15.068 2°51.247 22.4495 0.015466 0.084187 -3.020363
2011-07-07 07:41:23 51°15.06 2°51.229 22.4399 0.015363 0.08365 -3.020363
2011-07-07 07:41:30 51°15.045 2°51.199 22.4319 0.015466 0.084188 -3.020363
2011-07-07 07:41:34 51°15.037 2°51.181 22.4357 0.015466 0.084188 -3.020363
2011-07-07 07:41:39 51°15.026 2°51.16 22.4461 0.015466 0.084188 -3.020363
2011-07-07 07:41:44 51°15.015 2°51.138 22.4487 0.015466 0.08419 -3.020363
2011-07-07 07:41:49 51°15.005 2°51.117 22.4352 0.015466 0.08419 -3.020363
2011-07-07 07:41:55 51°14.991 2°51.091 22.4432 0.015363 0.083653 -3.020363
2011-07-07 07:41:59 51°14.983 2°51.074 22.436 0.015466 0.084191 -3.020363
2011-07-07 07:42:04 51°14.972 2°51.052 22.4359 0.015466 0.084191 -3.020363